W4HSV Weather Reports


time (UTC)temp
F
wind
direction
speed
knots
gust
knots
rain 1hr
in
rain 24hr
in
rain mn
in
humidity
%
barometer
mb
20260510161829 75 250 0.0 6.1 0.00 0.00 0.00 76 1017.2
20260510161737 75 339 0.9 6.1 0.00 0.00 0.00 77 1017.0
20260510161622 75 321 0.9 6.1 0.00 0.00 0.00 78 1017.0
20260510161530 75 321 1.7 6.1 0.00 0.00 0.00 77 1017.1
20260510161417 75 310 1.7 6.1 0.00 0.00 0.00 78 1017.1
20260510161329 75 279 1.7 6.1 0.00 0.00 0.00 77 1017.1
20260510161216 75 270 3.5 6.1 0.00 0.00 0.00 77 1017.1
20260510161125 75 250 3.5 6.1 0.00 0.00 0.00 77 1017.1
20260510161032 75 215 3.5 7.0 0.00 0.00 0.00 77 1017.0
20260510160920 75 219 2.6 7.0 0.00 0.00 0.00 78 1017.1
20260510160830 75 242 2.6 7.0 0.00 0.00 0.00 78 1017.1
20260510160717 75 165 2.6 6.1 0.00 0.00 0.00 79 1017.2
20260510160644 75 157 2.6 6.1 0.00 0.00 0.00 78 1017.2
20260510160554 75 163 2.6 6.1 0.00 0.00 0.00 78 1017.2
20260510160328 74 319 1.7 6.1 0.00 0.00 0.00 78 1017.2
20260510160221 74 306 2.6 6.1 0.00 0.00 0.00 78 1017.2
20260510160126 74 279 2.6 6.1 0.00 0.00 0.00 78 1017.2
20260510160014 74 250 2.6 5.2 0.00 0.00 0.00 79 1017.2
20260510155923 74 186 2.6 6.1 0.00 0.00 0.00 80 1017.2
20260510155830 74 187 2.6 7.0 0.00 0.00 0.00 80 1017.1
20260510155718 74 118 1.7 7.8 0.00 0.00 0.00 80 1017.1
20260510155630 74 109 1.7 7.8 0.00 0.00 0.00 79 1017.1
20260510155538 74 317 2.6 7.8 0.00 0.00 0.00 79 1017.0
20260510155331 74 252 3.5 7.8 0.00 0.00 0.00 79 1017.1
20260510155239 74 180 4.3 7.8 0.00 0.00 0.00 78 1016.9
20260510155205 74 189 4.3 7.8 0.00 0.00 0.00 79 1017.0
20260510155119 74 233 4.3 7.8 0.00 0.00 0.00 79 1017.0
20260510154812 74 130 3.5 5.2 0.00 0.00 0.00 79 1016.9
20260510154720 74 113 3.5 5.2 0.00 0.00 0.00 79 1016.9
20260510154626 74 169 2.6 5.2 0.00 0.00 0.00 79 1016.9
20260510154513 74 178 1.7 5.2 0.00 0.00 0.00 79 1017.0
20260510154425 74 269 2.6 5.2 0.00 0.00 0.00 79 1017.0
20260510154312 74 275 2.6 5.2 0.00 0.00 0.00 79 1016.9
20260510154219 74 264 2.6 5.2 0.00 0.00 0.00 80 1016.8
20260510154126 74 259 1.7 3.5 0.00 0.00 0.00 79 1016.8
20260510154013 74 199 0.9 3.5 0.00 0.00 0.00 79 1016.9
20260510153925 74 123 0.9 3.5 0.00 0.00 0.00 79 1016.9
20260510153813 74 212 0.9 3.5 0.00 0.00 0.00 79 1016.9
20260510153740 73 182 0.9 3.5 0.00 0.00 0.00 80 1016.9
20260510153646 73 203 1.7 3.5 0.00 0.00 0.00 80 1016.9
20260510153556 73 203 1.7 3.5 0.00 0.00 0.00 80 1016.9
20260510153314 73 282 1.7 3.5 0.00 0.00 0.00 80 1016.9
20260510153221 73 171 0.9 2.6 0.00 0.00 0.00 80 1016.9
20260510153129 73 169 0.9 2.6 0.00 0.00 0.00 80 1016.9
20260510153017 73 171 0.0 2.6 0.00 0.00 0.00 81 1016.9
20260510152924 73 306 0.0 6.1 0.00 0.00 0.00 81 1016.9
20260510152852 73 306 0.9 6.1 0.00 0.00 0.00 81 1017.0
20260510152721 73 306 1.7 6.1 0.00 0.00 0.00 81 1016.9
20260510152629 73 306 0.9 6.1 0.00 0.00 0.00 82 1016.9
20260510152536 72 266 0.9 6.1 0.00 0.00 0.00 83 1016.9
20260510152423 72 148 0.9 6.1 0.00 0.00 0.00 82 1016.9
20260510152312 72 143 0.9 6.1 0.00 0.00 0.00 82 1016.8
20260510152221 72 67 1.7 6.1 0.00 0.00 0.00 82 1016.8
20260510152149 72 136 0.9 6.1 0.00 0.00 0.00 82 1017.0
20260510152122 72 158 0.9 3.5 0.00 0.00 0.00 83 1016.8
20260510151815 72 84 0.9 3.5 0.00 0.00 0.00 83 1016.8
20260510151721 71 89 1.7 7.0 0.00 0.00 0.00 84 1016.8
20260510151647 71 83 2.6 7.0 0.00 0.00 0.00 84 1016.8
20260510151518 71 84 1.7 7.0 0.00 0.00 0.00 84 1016.8
20260510151426 71 83 1.7 7.0 0.00 0.00 0.00 85 1016.8
20260510151332 71 76 0.9 7.0 0.00 0.00 0.00 85 1016.9
20260510151220 71 90 0.9 7.0 0.00 0.00 0.00 85 1016.9
20260510151148 71 155 0.9 7.0 0.00 0.00 0.00 84 1016.9
20260510151016 71 162 2.6 7.0 0.00 0.00 0.00 85 1016.9
20260510150943 70 144 2.6 7.0 0.00 0.00 0.00 86 1016.9
20260510150813 70 159 1.7 4.3 0.00 0.00 0.00 86 1016.8
20260510150719 70 168 0.9 4.3 0.00 0.00 0.00 87 1016.9
20260510150646 70 200 0.9 3.5 0.00 0.00 0.00 87 1016.9
20260510150616 70 149 0.0 2.6 0.00 0.00 0.00 88 1017.0
20260510150314 70 150 0.0 2.6 0.00 0.00 0.00 89 1017.0
20260510150222 69 150 0.9 2.6 0.00 0.00 0.00 88 1017.0
20260510150129 69 150 0.9 2.6 0.00 0.00 0.00 88 1016.9
20260510150017 69 150 0.9 2.6 0.00 0.00 0.00 89 1016.8
20260510145925 69 148 0.9 2.6 0.00 0.00 0.00 90 1016.8
20260510145812 69 183 0.9 2.6 0.00 0.00 0.00 90 1016.9
20260510145724 69 144 0.9 2.6 0.00 0.00 0.00 91 1016.9
20260510145631 68 53 0.9 2.6 0.00 0.00 0.00 92 1016.9
20260510145540 68 33 0.9 2.6 0.00 0.00 0.00 93 1016.8
20260510145424 68 39 0.0 4.3 0.00 0.00 0.00 93 1016.8
20260510145331 68 86 0.9 4.3 0.00 0.00 0.00 93 1016.9
20260510145220 67 63 0.0 4.3 0.00 0.00 0.00 93 1016.9
20260510145130 67 63 0.0 4.3 0.00 0.00 0.00 93 1016.9
20260510145100 67 63 0.0 4.3 0.00 0.00 0.00 94 1016.9
20260510144813 67 128 0.9 4.3 0.00 0.00 0.00 94 1016.9
20260510144722 67 128 1.7 4.3 0.00 0.00 0.00 94 1016.9
20260510144649 67 128 2.6 4.3 0.00 0.00 0.00 94 1016.9
20260510144540 66 157 1.7 3.5 0.00 0.00 0.00 96 1016.9
20260510144427 66 122 0.9 3.5 0.00 0.00 0.00 96 1016.9
20260510144334 66 182 0.0 1.7 0.00 0.00 0.00 96 1017.0
20260510144239 66 45 0.9 1.7 0.00 0.00 0.00 96 1017.0
20260510144126 66 44 0.0 2.6 0.00 0.00 0.00 96 1017.0
20260510144033 65 87 0.0 3.5 0.00 0.00 0.00 96 1017.1
20260510143920 65 168 0.0 3.5 0.00 0.00 0.00 96 1017.1
20260510143847 65 168 0.0 3.5 0.00 0.00 0.00 96 1017.1
20260510143738 65 168 0.0 3.5 0.00 0.00 0.00 97 1017.0
20260510143625 65 168 0.9 3.5 0.00 0.00 0.00 96 1017.0
20260510143555 65 168 0.9 3.5 0.00 0.00 0.00 97 1017.0
20260510143327 65 173 1.7 3.5 0.00 0.00 0.00 97 1017.0
20260510143215 65 186 1.7 3.5 0.00 0.00 0.00 97 1017.1
20260510143147 65 184 1.7 3.5 0.00 0.00 0.00 97 1017.1
20260510143015 65 182 0.9 3.5 0.00 0.00 0.00 97 1017.1
20260510142922 65 183 0.9 3.5 0.00 0.00 0.00 97 1017.1
20260510142829 65 161 0.9 3.5 0.00 0.00 0.00 97 1017.0
20260510142716 65 161 1.7 3.5 0.00 0.00 0.00 97 1017.0
20260510142644 65 188 1.7 3.5 0.00 0.00 0.00 97 1017.0
20260510142514 64 213 1.7 3.5 0.00 0.00 0.00 97 1017.0
20260510142421 64 187 1.7 3.5 0.00 0.00 0.00 97 1017.0
20260510142329 64 256 1.7 3.5 0.00 0.00 0.00 97 1017.0
20260510142217 64 256 1.7 3.5 0.00 0.00 0.00 97 1017.0
20260510142145 64 202 1.7 3.5 0.00 0.00 0.00 97 1017.0
20260510142058 64 220 1.7 3.5 0.00 0.00 0.00 97 1017.0
20260510141831 64 190 1.7 3.5 0.00 0.00 0.00 97 1017.1
20260510141718 64 219 0.9 3.5 0.00 0.00 0.00 98 1016.9
20260510141625 64 212 0.9 3.5 0.00 0.00 0.00 98 1016.9
20260510141531 64 184 0.9 3.5 0.00 0.00 0.00 97 1016.9
20260510141438 64 198 1.7 3.5 0.00 0.00 0.00 97 1017.0
20260510141330 64 222 1.7 3.5 0.00 0.00 0.00 97 1017.0
20260510141216 64 194 0.9 3.5 0.00 0.00 0.00 97 1017.0
20260510141123 64 224 0.9 3.5 0.00 0.00 0.00 97 1017.0
20260510141030 64 214 0.9 3.5 0.00 0.00 0.00 97 1017.0
20260510140917 64 190 1.7 3.5 0.00 0.00 0.00 97 1017.1
20260510140845 64 202 1.7 3.5 0.00 0.00 0.00 98 1017.1
20260510140715 64 191 1.7 3.5 0.00 0.00 0.00 98 1017.0
20260510140622 64 197 0.9 3.5 0.00 0.00 0.00 98 1017.0
20260510140552 64 43 0.9 3.5 0.00 0.00 0.00 98 1017.1
20260510140327 64 99 0.9 3.5 0.00 0.00 0.00 98 1017.2
20260510140213 63 99 0.9 3.5 0.00 0.00 0.00 98 1017.2
20260510140145 63 100 0.9 3.5 0.00 0.00 0.00 98 1017.2
20260510140052 63 100 0.9 3.5 0.00 0.00 0.00 98 1017.1
20260510135918 63 104 0.9 3.5 0.00 0.00 0.00 98 1017.1
20260510135825 63 133 1.7 3.5 0.00 0.00 0.00 98 1017.1
20260510135733 63 133 1.7 3.5 0.00 0.00 0.00 97 1017.1
20260510135620 63 144 1.7 3.5 0.00 0.00 0.00 97 1017.0
20260510135527 63 138 0.9 3.5 0.00 0.00 0.00 97 1017.0
20260510135438 63 179 0.0 3.5 0.00 0.00 0.00 97 1017.0
20260510135324 63 179 0.9 5.2 0.00 0.00 0.00 98 1017.0
20260510135212 63 184 1.7 5.2 0.00 0.00 0.00 98 1017.0
20260510135140 63 188 1.7 5.2 0.00 0.00 0.00 97 1017.0
20260510135049 63 184 1.7 5.2 0.00 0.00 0.00 97 1017.0
20260510134826 63 150 1.7 5.2 0.00 0.00 0.00 97 1017.0
20260510134713 63 111 1.7 5.2 0.00 0.00 0.00 97 1017.0
20260510134621 63 161 2.6 5.2 0.00 0.00 0.00 97 1017.0
20260510134529 63 192 2.6 5.2 0.00 0.00 0.00 97 1016.9
20260510134417 63 186 3.5 5.2 0.00 0.00 0.00 97 1016.8
20260510134329 63 198 2.6 4.3 0.00 0.00 0.00 98 1016.8
20260510134216 63 161 1.7 3.5 0.00 0.00 0.00 98 1016.8
20260510134123 63 171 1.7 4.3 0.00 0.00 0.00 98 1016.8
20260510134050 63 128 1.7 4.3 0.00 0.00 0.00 98 1016.7
20260510133914 63 177 1.7 4.3 0.00 0.00 0.00 98 1016.8
20260510133823 63 155 1.7 5.2 0.00 0.00 0.00 98 1016.8
20260510133715 63 148 1.7 5.2 0.00 0.00 0.00 97 1016.8
20260510133621 63 142 2.6 5.2 0.00 0.00 0.00 97 1016.8
20260510133551 63 193 2.6 5.2 0.00 0.00 0.00 97 1016.8
20260510133325 63 183 1.7 5.2 0.00 0.00 0.00 97 1016.8
20260510133215 63 188 2.6 5.2 0.00 0.00 0.00 97 1016.8
20260510133122 63 210 2.6 5.2 0.00 0.00 0.00 97 1016.8
20260510133029 63 230 3.5 5.2 0.00 0.00 0.00 97 1016.8
20260510132917 63 202 1.7 5.2 0.00 0.00 0.00 97 1016.8
20260510132824 63 217 1.7 3.5 0.00 0.00 0.00 97 1016.8
20260510132712 63 163 1.7 3.5 0.00 0.00 0.00 98 1016.8
20260510132625 63 154 2.6 3.5 0.00 0.00 0.00 98 1016.8
20260510132551 63 159 2.6 3.5 0.00 0.00 0.00 97 1016.7
20260510132418 63 117 1.7 3.5 0.00 0.00 0.00 98 1016.8
20260510132325 63 118 0.9 3.5 0.00 0.00 0.00 98 1016.8
20260510132213 63 128 0.9 3.5 0.00 0.00 0.00 98 1016.8
20260510132140 63 109 0.9 3.5 0.00 0.00 0.00 98 1016.8
20260510132114 63 98 0.0 3.5 0.00 0.00 0.00 97 1016.8
20260510131827 62 100 0.9 3.5 0.00 0.00 0.00 97 1016.7
20260510131714 62 169 1.7 3.5 0.00 0.00 0.00 97 1016.7
20260510131620 62 174 0.9 3.5 0.00 0.00 0.00 97 1016.7
20260510131528 62 130 0.0 2.6 0.00 0.00 0.00 97 1016.7
20260510131439 62 130 0.9 2.6 0.00 0.00 0.00 97 1016.6
20260510131326 62 130 1.7 2.6 0.00 0.00 0.00 97 1016.6
20260510131233 62 149 1.7 2.6 0.00 0.00 0.00 98 1016.8
20260510131120 63 103 0.9 2.6 0.00 0.00 0.00 98 1016.7
20260510131048 62 103 0.9 2.6 0.00 0.00 0.00 98 1016.7
20260510130935 62 82 1.7 2.6 0.00 0.00 0.00 98 1016.7
20260510130820 62 74 1.7 2.6 0.00 0.00 0.00 98 1016.7
20260510130712 62 74 0.9 2.6 0.00 0.00 0.00 98 1016.7
20260510130620 62 74 0.9 1.7 0.00 0.00 0.00 98 1016.7
20260510130550 62 74 0.9 1.7 0.00 0.00 0.00 97 1016.7
20260510130345 62 74 0.9 1.7 0.00 0.00 0.00 97 1016.6
20260510130212 62 74 0.9 2.6 0.00 0.00 0.00 97 1016.6
20260510130145 62 84 0.0 2.6 0.00 0.00 0.00 97 1016.6
20260510130032 62 120 0.0 2.6 0.00 0.00 0.00 97 1016.6
20260510125919 62 120 0.9 2.6 0.00 0.00 0.00 98 1016.5
20260510125826 62 120 0.9 2.6 0.00 0.00 0.00 97 1016.5
20260510125735 62 121 0.9 2.6 0.00 0.00 0.00 97 1016.5
20260510125642 62 102 1.7 2.6 0.00 0.00 0.00 97 1016.5
20260510125528 62 98 1.7 2.6 0.00 0.00 0.00 97 1016.5
20260510125419 62 105 1.7 2.6 0.00 0.00 0.00 97 1016.5
20260510125327 62 96 1.7 2.6 0.00 0.00 0.00 97 1016.5
20260510125213 62 121 0.9 2.6 0.00 0.00 0.00 97 1016.5
20260510125120 62 121 0.0 2.6 0.00 0.00 0.00 97 1016.5
20260510125055 62 121 0.0 2.6 0.00 0.00 0.00 97 1016.5
20260510124828 62 121 0.0 1.7 0.00 0.00 0.00 97 1016.4
20260510124716 62 120 0.9 1.7 0.00 0.00 0.00 97 1016.4
20260510124623 62 120 0.9 1.7 0.00 0.00 0.00 97 1016.4
20260510124530 62 120 0.0 1.7 0.00 0.00 0.00 97 1016.4
20260510124422 62 121 0.0 1.7 0.00 0.00 0.00 97 1016.4
20260510124330 62 121 0.0 2.6 0.00 0.00 0.00 97 1016.4
20260510124217 62 121 0.0 2.6 0.00 0.00 0.00 97 1016.5
20260510124125 62 121 0.0 2.6 0.00 0.00 0.00 97 1016.5
20260510124013 62 121 0.0 2.6 0.00 0.00 0.00 97 1016.4
20260510123920 62 120 0.0 2.6 0.00 0.00 0.00 97 1016.4
20260510123812 62 121 0.0 3.5 0.00 0.00 0.00 97 1016.4
20260510123720 62 121 0.9 3.5 0.00 0.00 0.00 97 1016.3
20260510123627 62 121 0.9 3.5 0.00 0.00 0.00 97 1016.3
20260510123556 62 121 0.9 3.5 0.00 0.00 0.00 97 1016.3
20260510123334 62 113 1.7 3.5 0.00 0.00 0.00 97 1016.4
20260510123221 62 113 2.6 3.5 0.00 0.00 0.00 97 1016.4
20260510123149 62 126 2.6 3.5 0.00 0.00 0.00 97 1016.3
20260510123015 62 112 1.7 5.2 0.00 0.00 0.00 97 1016.3
20260510122923 62 115 0.9 5.2 0.00 0.00 0.00 97 1016.3
20260510122831 62 132 0.9 5.2 0.00 0.00 0.00 97 1016.3
20260510122722 62 113 1.7 5.2 0.00 0.00 0.00 97 1016.3
20260510122649 61 115 1.7 5.2 0.00 0.00 0.00 97 1016.2
20260510122516 62 115 2.6 5.2 0.00 0.00 0.00 97 1016.2
20260510122445 62 125 2.6 5.2 0.00 0.00 0.00 97 1016.2
20260510122331 62 126 2.6 5.2 0.00 0.00 0.00 97 1016.2
20260510122218 61 142 2.6 4.3 0.00 0.00 0.00 97 1016.2
20260510122125 61 119 2.6 4.3 0.00 0.00 0.00 97 1016.2
20260510122100 61 122 2.6 4.3 0.00 0.00 0.00 97 1016.1
20260510121832 61 145 2.6 4.3 0.00 0.00 0.00 97 1016.1
20260510121720 61 150 3.5 4.3 0.00 0.00 0.00 97 1016.1
20260510121627 62 146 3.5 4.3 0.00 0.00 0.00 97 1016.1
20260510121519 62 133 2.6 4.3 0.00 0.00 0.00 97 1016.2
20260510121446 61 140 2.6 4.3 0.00 0.00 0.00 97 1016.2
20260510121331 61 134 2.6 4.3 0.00 0.00 0.00 97 1016.2
20260510121218 61 141 3.5 4.3 0.00 0.00 0.00 97 1016.1
20260510121125 61 132 3.5 5.2 0.00 0.00 0.00 97 1016.1
20260510121014 62 139 3.5 5.2 0.00 0.00 0.00 97 1016.2
20260510120926 61 133 2.6 5.2 0.00 0.00 0.00 97 1016.2
20260510120813 61 140 1.7 5.2 0.00 0.00 0.00 97 1016.2
20260510120741 61 154 1.7 5.2 0.00 0.00 0.00 97 1016.2
20260510120647 61 151 1.7 5.2 0.00 0.00 0.00 97 1016.2
20260510120616 61 187 1.7 5.2 0.00 0.00 0.00 97 1016.1
20260510120312 61 119 2.6 5.2 0.00 0.00 0.00 97 1016.0
20260510120219 61 189 3.5 5.2 0.00 0.00 0.00 97 1016.0
20260510120126 61 191 3.5 5.2 0.00 0.00 0.00 97 1016.0
20260510120012 61 183 1.7 4.3 0.00 0.00 0.00 97 1016.1
20260510115919 61 169 1.7 4.3 0.00 0.00 0.00 97 1016.1
20260510115826 61 148 1.7 4.3 0.00 0.00 0.00 97 1016.1
20260510115716 61 142 0.9 4.3 0.00 0.00 0.00 97 1016.0
20260510115624 61 170 0.9 4.3 0.00 0.00 0.00 97 1016.0
20260510115552 61 180 0.9 4.3 0.00 0.00 0.00 97 1016.1
20260510115418 61 144 1.7 4.3 0.00 0.00 0.00 97 1016.0
20260510115326 61 189 1.7 4.3 0.00 0.00 0.00 97 1016.0
20260510115214 61 182 0.9 2.6 0.00 0.00 0.00 97 1015.9
20260510115126 61 148 0.9 2.6 0.00 0.00 0.00 97 1015.9
20260510115057 61 148 1.7 2.6 0.00 0.00 0.00 97 1015.9
20260510114830 61 201 0.9 3.5 0.00 0.00 0.00 97 1015.8
20260510114717 61 167 0.9 2.6 0.00 0.00 0.00 97 1015.8
20260510114628 61 122 0.9 2.6 0.00 0.00 0.00 97 1015.8
20260510114516 61 131 0.9 2.6 0.00 0.00 0.00 97 1015.8
20260510114424 61 131 1.7 2.6 0.00 0.00 0.00 97 1015.8
20260510114332 61 124 1.7 2.6 0.00 0.00 0.00 97 1015.9
20260510114218 61 153 0.9 2.6 0.00 0.00 0.00 97 1015.7
20260510114125 61 137 1.7 2.6 0.00 0.00 0.00 97 1015.7
20260510114017 61 146 1.7 2.6 0.00 0.00 0.00 97 1015.6
20260510113924 61 145 1.7 2.6 0.00 0.00 0.00 97 1015.6
20260510113812 61 126 1.7 2.6 0.00 0.00 0.00 97 1015.6
20260510113720 61 126 1.7 2.6 0.00 0.00 0.00 97 1015.6
20260510113649 60 127 1.7 2.6 0.00 0.00 0.00 97 1015.6
20260510113601 60 135 1.7 2.6 0.00 0.00 0.00 97 1015.5
20260510113315 60 120 0.9 2.6 0.00 0.00 0.00 97 1015.5
20260510113223 60 126 0.9 1.7 0.00 0.00 0.00 97 1015.5
20260510113151 60 126 0.9 1.7 0.00 0.00 0.00 97 1015.5
20260510113016 60 126 0.9 1.7 0.00 0.00 0.00 97 1015.6
20260510112928 60 126 0.9 2.6 0.00 0.00 0.00 97 1015.6
20260510112814 60 126 0.9 3.5 0.00 0.00 0.00 97 1015.6
20260510112722 60 126 0.9 3.5 0.00 0.00 0.00 97 1015.6
20260510112630 60 126 0.9 3.5 0.00 0.00 0.00 97 1015.5
20260510112518 60 140 0.0 3.5 0.00 0.00 0.00 97 1015.5
20260510112446 60 140 0.9 3.5 0.00 0.00 0.00 97 1015.5
20260510112316 60 140 0.9 3.5 0.00 0.00 0.00 97 1015.4
20260510112223 60 140 1.7 3.5 0.00 0.00 0.00 97 1015.4
20260510112130 60 128 1.7 3.5 0.00 0.00 0.00 97 1015.4
20260510112059 60 132 1.7 3.5 0.00 0.00 0.00 97 1015.4
20260510111832 60 148 1.7 3.5 0.00 0.00 0.00 97 1015.3
20260510111723 60 186 1.7 3.5 0.00 0.00 0.00 97 1015.3
20260510111630 60 175 1.7 3.5 0.00 0.00 0.00 97 1015.3
20260510111539 60 151 1.7 3.5 0.00 0.00 0.00 97 1015.2
20260510111426 60 149 1.7 3.5 0.00 0.00 0.00 97 1015.2
20260510111314 60 138 1.7 3.5 0.00 0.00 0.00 97 1015.2
20260510111241 60 140 0.9 3.5 0.00 0.00 0.00 97 1015.2
20260510111132 60 119 0.9 2.6 0.00 0.00 0.00 97 1015.2
20260510111019 60 142 1.7 2.6 0.00 0.00 0.00 97 1015.2
20260510110927 60 142 1.7 2.6 0.00 0.00 0.00 97 1015.2
20260510110836 60 142 0.9 2.6 0.00 0.00 0.00 97 1015.2
20260510110722 60 155 0.9 2.6 0.00 0.00 0.00 96 1015.2
20260510110629 60 155 0.9 2.6 0.00 0.00 0.00 96 1015.2
20260510110605 60 155 0.9 2.6 0.00 0.00 0.00 96 1015.1
20260510110319 60 155 0.9 2.6 0.00 0.00 0.00 96 1015.2
20260510110227 60 155 0.9 2.6 0.00 0.00 0.00 96 1015.2
20260510110134 60 155 0.0 0.0 0.00 0.00 0.00 96 1015.0
20260510110022 60 155 0.0 0.9 0.00 0.00 0.00 96 1015.0
20260510105953 60 155 0.0 0.9 0.00 0.00 0.00 96 1015.0
20260510105819 60 155 0.0 0.9 0.00 0.00 0.00 96 1014.9
20260510105747 60 155 0.0 0.9 0.00 0.00 0.00 96 1014.9
20260510105613 60 155 0.0 0.9 0.00 0.00 0.00 96 1014.9
20260510105521 60 155 0.0 0.9 0.00 0.00 0.00 96 1014.9
20260510105429 60 155 0.0 0.9 0.00 0.00 0.00 96 1014.9
20260510105319 60 155 0.0 0.9 0.00 0.00 0.00 96 1014.9
20260510105227 60 155 0.0 0.9 0.00 0.00 0.00 96 1014.9
20260510105154 60 155 0.9 0.9 0.00 0.00 0.00 96 1014.9
20260510105104 60 155 0.9 0.9 0.00 0.00 0.00 96 1014.8
20260510104818 59 155 0.9 0.9 0.00 0.00 0.00 96 1014.8
20260510104729 59 155 0.9 0.9 0.00 0.00 0.00 96 1014.8
20260510104616 59 155 0.0 0.9 0.00 0.00 0.00 96 1014.7
20260510104524 59 155 0.0 0.9 0.00 0.00 0.00 96 1014.7
20260510104432 59 155 0.0 0.9 0.00 0.00 0.00 96 1014.6
20260510104318 59 155 0.0 0.9 0.00 0.00 0.00 96 1014.7
20260510104230 59 155 0.0 0.9 0.00 0.00 0.00 96 1014.7
20260510104117 59 155 0.0 0.9 0.00 0.00 0.00 96 1014.6
20260510104024 59 155 0.0 0.9 0.00 0.00 0.00 96 1014.6
20260510103912 59 155 0.0 0.9 0.00 0.00 0.00 96 1014.6
20260510103819 59 155 0.9 0.9 0.00 0.00 0.00 96 1014.5
20260510103727 59 155 0.9 1.7 0.00 0.00 0.00 96 1014.5
20260510103620 59 155 0.9 1.7 0.00 0.00 0.00 96 1014.6
20260510103551 59 155 0.0 1.7 0.00 0.00 0.00 96 1014.5
20260510103324 59 155 0.0 2.6 0.00 0.00 0.00 96 1014.4
20260510103213 59 155 0.0 2.6 0.00 0.00 0.00 96 1014.4
20260510103124 59 155 0.0 2.6 0.00 0.00 0.00 96 1014.4
20260510103013 59 155 0.9 2.6 0.00 0.00 0.00 96 1014.5
20260510102921 59 155 0.9 2.6 0.00 0.00 0.00 96 1014.5
20260510102829 59 155 0.9 2.6 0.00 0.00 0.00 96 1014.3
20260510102716 59 155 0.9 2.6 0.00 0.00 0.00 96 1014.3
20260510102626 59 155 1.7 2.6 0.00 0.00 0.00 96 1014.3
20260510102514 59 158 1.7 2.6 0.00 0.00 0.00 96 1014.4
20260510102419 59 151 0.9 1.7 0.00 0.00 0.00 96 1014.4
20260510102328 59 151 0.9 2.6 0.00 0.00 0.00 96 1014.4
20260510102214 59 151 0.9 2.6 0.00 0.00 0.00 96 1014.4
20260510102121 59 151 0.9 2.6 0.00 0.00 0.00 96 1014.4
20260510102056 59 151 0.9 2.6 0.00 0.00 0.00 96 1014.4
20260510101829 59 151 0.9 2.6 0.00 0.00 0.00 96 1014.4
20260510101716 59 151 0.9 2.6 0.00 0.00 0.00 96 1014.3
20260510101624 58 151 1.7 2.6 0.00 0.00 0.00 96 1014.3
20260510101514 58 151 1.7 2.6 0.00 0.00 0.00 96 1014.3
20260510101422 58 151 1.7 2.6 0.00 0.00 0.00 96 1014.3
20260510101351 58 151 2.6 2.6 0.00 0.00 0.00 96 1014.2
20260510101218 58 142 1.7 2.6 0.00 0.00 0.00 96 1014.3
20260510101126 58 191 1.7 2.6 0.00 0.00 0.00 95 1014.3
20260510101012 58 191 1.7 1.7 0.00 0.00 0.00 95 1014.3
20260510100939 58 191 0.9 1.7 0.00 0.00 0.00 95 1014.4
20260510100830 58 191 0.9 1.7 0.00 0.00 0.00 95 1014.4
20260510100716 58 191 0.0 0.9 0.00 0.00 0.00 95 1014.4
20260510100625 58 191 0.0 0.9 0.00 0.00 0.00 95 1014.4
20260510100555 58 191 0.0 1.7 0.00 0.00 0.00 95 1014.4
20260510100313 58 191 0.0 1.7 0.00 0.00 0.00 95 1014.3
20260510100220 58 191 0.0 1.7 0.00 0.00 0.00 95 1014.3
20260510100127 58 191 0.0 1.7 0.00 0.00 0.00 95 1014.3
20260510100014 58 191 0.0 1.7 0.00 0.00 0.00 95 1014.2
20260510095943 58 191 0.9 1.7 0.00 0.00 0.00 95 1014.2
20260510095829 58 191 0.9 1.7 0.00 0.00 0.00 95 1014.2
20260510095721 58 191 0.9 1.7 0.00 0.00 0.00 95 1014.3
20260510095629 58 191 0.9 1.7 0.00 0.00 0.00 95 1014.3
20260510095516 58 191 0.9 1.7 0.00 0.00 0.00 95 1014.3
20260510095424 58 191 0.0 0.9 0.00 0.00 0.00 95 1014.3
20260510095330 58 191 0.0 0.9 0.00 0.00 0.00 95 1014.3
20260510095222 58 191 0.0 0.9 0.00 0.00 0.00 95 1014.3
20260510095128 58 191 0.0 0.9 0.00 0.00 0.00 95 1014.3
20260510095056 58 191 0.0 0.0 0.00 0.00 0.00 95 1014.1
20260510094849 58 191 0.0 0.0 0.00 0.00 0.00 95 1014.1
20260510094716 58 191 0.0 0.0 0.00 0.00 0.00 94 1014.2
20260510094623 58 191 0.0 0.0 0.00 0.00 0.00 94 1014.2
20260510094514 58 191 0.0 0.0 0.00 0.00 0.00 94 1014.3
20260510094421 58 191 0.0 0.0 0.00 0.00 0.00 94 1014.3
20260510094328 58 191 0.0 0.0 0.00 0.00 0.00 94 1014.1
20260510094216 58 191 0.0 0.0 0.00 0.00 0.00 94 1014.1
20260510094143 58 191 0.0 0.0 0.00 0.00 0.00 94 1014.1
20260510094014 58 191 0.0 0.0 0.00 0.00 0.00 94 1014.1
20260510093942 58 191 0.0 0.0 0.00 0.00 0.00 95 1014.1
20260510093827 58 191 0.0 0.0 0.00 0.00 0.00 95 1014.0
20260510093734 58 191 0.0 0.0 0.00 0.00 0.00 95 1014.1
20260510093640 58 191 0.0 0.0 0.00 0.00 0.00 95 1014.0
20260510093550 58 191 0.0 0.0 0.00 0.00 0.00 95 1014.0
20260510093328 58 191 0.0 0.0 0.00 0.00 0.00 95 1014.1
20260510093214 58 191 0.0 0.0 0.00 0.00 0.00 95 1014.0
20260510093123 58 191 0.0 0.0 0.00 0.00 0.00 95 1014.0
20260510093030 58 191 0.0 0.0 0.00 0.00 0.00 95 1014.1
20260510092919 58 191 0.0 0.0 0.00 0.00 0.00 95 1014.1
20260510092826 58 191 0.0 0.0 0.00 0.00 0.00 95 1014.1
20260510092737 58 191 0.0 0.0 0.00 0.00 0.00 95 1014.1
20260510092645 58 191 0.0 0.0 0.00 0.00 0.00 95 1014.1
20260510092531 58 191 0.0 0.0 0.00 0.00 0.00 95 1014.2
20260510092419 58 191 0.0 0.0 0.00 0.00 0.00 95 1014.2
20260510092346 58 191 0.0 0.0 0.00 0.00 0.00 95 1014.2
20260510092212 58 191 0.0 0.0 0.00 0.00 0.00 95 1014.2
20260510092124 58 191 0.0 0.0 0.00 0.00 0.00 95 1014.2
20260510092054 58 191 0.0 0.0 0.00 0.00 0.00 95 1014.2
20260510091847 58 191 0.0 0.0 0.00 0.00 0.00 95 1014.2
20260510091712 58 191 0.0 0.0 0.00 0.00 0.00 95 1014.1
20260510091640 58 191 0.0 0.0 0.00 0.00 0.00 94 1014.2
20260510091527 58 191 0.0 0.0 0.00 0.00 0.00 94 1014.2
20260510091418 58 191 0.0 0.0 0.00 0.00 0.00 94 1014.3
20260510091345 58 191 0.0 0.0 0.00 0.00 0.00 94 1014.3
20260510091232 58 191 0.0 0.0 0.00 0.00 0.00 94 1014.3
20260510091118 58 191 0.0 0.0 0.00 0.00 0.00 94 1014.2
20260510091027 58 191 0.0 0.0 0.00 0.00 0.00 94 1014.2
20260510090918 58 191 0.0 0.0 0.00 0.00 0.00 94 1014.3
20260510090826 58 191 0.0 0.0 0.00 0.00 0.00 94 1014.3
20260510090713 58 191 0.0 0.0 0.00 0.00 0.00 94 1014.4
20260510090620 58 191 0.0 0.0 0.00 0.00 0.00 94 1014.4
20260510090551 58 191 0.0 0.0 0.00 0.00 0.00 94 1014.3
20260510090330 59 191 0.0 0.0 0.00 0.00 0.00 94 1014.3
20260510090217 59 191 0.0 0.0 0.00 0.00 0.00 94 1014.3
20260510090126 59 191 0.0 0.0 0.00 0.00 0.00 94 1014.3
20260510090053 59 191 0.0 0.0 0.00 0.00 0.00 94 1014.3
20260510085918 59 191 0.0 0.0 0.00 0.00 0.00 94 1014.3
20260510085826 59 191 0.0 0.0 0.00 0.00 0.00 94 1014.3
20260510085716 59 191 0.0 0.0 0.00 0.00 0.00 94 1014.1
20260510085625 59 191 0.0 0.0 0.00 0.00 0.00 95 1014.1
20260510085531 59 191 0.0 0.0 0.00 0.00 0.00 95 1014.1
20260510085438 59 191 0.0 0.0 0.00 0.00 0.00 94 1014.2
20260510085324 59 191 0.0 0.0 0.00 0.00 0.00 94 1014.2
20260510085233 59 191 0.0 0.0 0.00 0.00 0.00 94 1014.1
20260510085205 59 191 0.0 0.0 0.00 0.00 0.00 94 1014.1
20260510085114 59 191 0.0 0.0 0.00 0.00 0.00 94 1014.0
20260510084827 59 191 0.0 0.0 0.00 0.00 0.00 94 1014.0
20260510084715 59 191 0.0 0.0 0.00 0.00 0.00 94 1014.0
20260510084622 59 191 0.0 0.0 0.00 0.00 0.00 94 1014.0
20260510084514 59 191 0.0 0.0 0.00 0.00 0.00 94 1013.9
20260510084421 59 191 0.0 0.0 0.00 0.00 0.00 95 1013.9
20260510084329 59 191 0.0 0.0 0.00 0.00 0.00 95 1014.0
20260510084218 59 191 0.0 0.0 0.00 0.00 0.00 95 1013.8
20260510084125 59 191 0.0 0.0 0.00 0.00 0.00 95 1013.8
20260510084018 59 191 0.0 1.7 0.00 0.00 0.00 95 1013.8
20260510083945 59 191 0.0 1.7 0.00 0.00 0.00 94 1013.8
20260510083831 59 191 0.0 1.7 0.00 0.00 0.00 94 1013.8
20260510083719 59 191 0.0 1.7 0.00 0.00 0.00 94 1013.7
20260510083625 59 191 0.0 2.6 0.00 0.00 0.00 94 1013.7
20260510083600 59 191 0.0 2.6 0.00 0.00 0.00 94 1013.8
20260510083313 59 191 0.9 2.6 0.00 0.00 0.00 94 1013.8
20260510083221 59 191 0.9 2.6 0.00 0.00 0.00 94 1013.8
20260510083128 59 191 0.9 2.6 0.00 0.00 0.00 94 1013.6
20260510083017 59 191 0.9 2.6 0.00 0.00 0.00 94 1013.6
20260510082929 59 191 1.7 2.6 0.00 0.00 0.00 94 1013.6
20260510082816 59 191 1.7 2.6 0.00 0.00 0.00 94 1013.5
20260510082724 59 194 1.7 2.6 0.00 0.00 0.00 94 1013.5
20260510082632 59 195 0.9 2.6 0.00 0.00 0.00 94 1013.5
20260510082518 59 211 0.0 0.0 0.00 0.00 0.00 94 1013.5
20260510082446 59 211 0.0 0.0 0.00 0.00 0.00 94 1013.5
20260510082316 59 297 0.0 0.0 0.00 0.00 0.00 94 1013.5
20260510082224 59 297 0.0 0.0 0.00 0.00 0.00 94 1013.5
20260510082123 59 297 0.0 0.0 0.00 0.00 0.00 94 1013.5
20260510081816 59 297 0.0 0.0 0.00 0.00 0.00 94 1013.5
20260510081726 59 297 0.0 0.0 0.00 0.00 0.00 94 1013.5
20260510081613 59 297 0.0 0.0 0.00 0.00 0.00 94 1013.4
20260510081541 59 297 0.0 0.0 0.00 0.00 0.00 94 1013.4
20260510081427 59 297 0.0 0.0 0.00 0.00 0.00 94 1013.4
20260510081314 59 297 0.0 0.0 0.00 0.00 0.00 94 1013.3
20260510081223 59 297 0.0 0.0 0.00 0.00 0.00 94 1013.3
20260510081114 59 297 0.0 0.0 0.00 0.00 0.00 94 1013.3
20260510081022 59 297 0.0 0.0 0.00 0.00 0.00 94 1013.3
20260510080927 59 297 0.0 0.0 0.00 0.00 0.00 94 1013.3
20260510080835 59 297 0.0 0.0 0.00 0.00 0.00 94 1013.3
20260510080721 59 297 0.0 0.0 0.00 0.00 0.00 94 1013.3
20260510080602 59 297 0.0 0.0 0.00 0.00 0.00 94 1013.3
20260510080315 59 297 0.0 0.0 0.00 0.00 0.00 94 1013.2
20260510080222 59 297 0.0 0.0 0.00 0.00 0.00 94 1013.2
20260510080130 59 297 0.0 0.0 0.00 0.00 0.00 93 1013.3
20260510080022 59 297 0.0 0.0 0.00 0.00 0.00 93 1013.3
20260510075929 59 297 0.0 0.0 0.00 0.00 0.00 93 1013.3
20260510075817 59 297 0.0 0.0 0.00 0.00 0.00 94 1013.3
20260510075725 59 297 0.0 0.0 0.00 0.00 0.00 93 1013.3
20260510075612 59 297 0.0 0.0 0.00 0.00 0.00 94 1013.3
20260510075523 59 297 0.0 0.0 0.00 0.00 0.00 94 1013.3
20260510075412 59 297 0.0 0.0 0.00 0.00 0.00 94 1013.2
20260510075320 59 297 0.0 0.0 0.00 0.00 0.00 94 1013.2
20260510075248 59 297 0.0 0.0 0.00 0.00 0.00 94 1013.2
20260510075134 59 297 0.0 0.0 0.00 0.00 0.00 94 1013.3
20260510075048 59 297 0.0 0.0 0.00 0.00 0.00 94 1013.3
20260510074822 59 297 0.0 0.0 0.00 0.00 0.00 94 1013.2
20260510074730 59 297 0.0 0.0 0.00 0.00 0.00 94 1013.2
20260510074638 59 297 0.0 0.0 0.00 0.00 0.00 93 1013.2
20260510074524 59 297 0.0 0.0 0.00 0.00 0.00 93 1013.2
20260510074412 59 297 0.0 0.0 0.00 0.00 0.00 93 1013.1
20260510074324 60 297 0.0 0.0 0.00 0.00 0.00 93 1013.1
20260510074232 60 297 0.0 0.0 0.00 0.00 0.00 93 1013.2
20260510074119 60 297 0.0 0.0 0.00 0.00 0.00 93 1013.1
20260510074026 60 297 0.0 0.0 0.00 0.00 0.00 93 1013.1
20260510073915 60 297 0.0 0.0 0.00 0.00 0.00 93 1013.2
20260510073843 60 297 0.0 0.0 0.00 0.00 0.00 93 1013.2
20260510073712 60 297 0.0 0.0 0.00 0.00 0.00 93 1013.2
20260510073620 60 297 0.0 0.0 0.00 0.00 0.00 93 1013.2
20260510073551 60 297 0.0 0.0 0.00 0.00 0.00 93 1013.2
20260510073325 60 297 0.0 0.0 0.00 0.00 0.00 93 1013.2
20260510073217 60 350 0.0 0.0 0.00 0.00 0.00 93 1013.2
20260510073124 60 350 0.0 0.0 0.00 0.00 0.00 93 1013.2
20260510073012 60 350 0.0 0.0 0.00 0.00 0.00 93 1013.2
20260510072919 60 350 0.0 0.0 0.00 0.00 0.00 93 1013.2
20260510072827 60 350 0.0 0.0 0.00 0.00 0.00 93 1013.2
20260510072714 60 350 0.0 0.0 0.00 0.00 0.00 93 1013.3
20260510072624 60 350 0.0 0.0 0.00 0.00 0.00 93 1013.3
20260510072512 60 350 0.0 0.0 0.00 0.00 0.00 93 1013.3
20260510072421 60 350 0.0 0.0 0.00 0.00 0.00 93 1013.3
20260510072327 60 350 0.0 0.0 0.00 0.00 0.00 93 1013.2
20260510072215 60 350 0.0 0.0 0.00 0.00 0.00 93 1013.3
20260510072143 60 350 0.0 0.0 0.00 0.00 0.00 93 1013.3
20260510072057 60 350 0.0 0.0 0.00 0.00 0.00 93 1013.2
20260510071831 60 350 0.0 0.0 0.00 0.00 0.00 93 1013.2
20260510071718 60 350 0.0 0.0 0.00 0.00 0.00 93 1013.2
20260510071625 60 350 0.0 0.0 0.00 0.00 0.00 93 1013.2
20260510071516 60 350 0.0 0.0 0.00 0.00 0.00 93 1013.3
20260510071423 60 350 0.0 0.0 0.00 0.00 0.00 93 1013.3
20260510071350 60 350 0.0 0.0 0.00 0.00 0.00 93 1013.3
20260510071218 60 350 0.0 0.0 0.00 0.00 0.00 93 1013.3
20260510071126 60 350 0.0 0.0 0.00 0.00 0.00 93 1013.3
20260510071015 60 350 0.0 0.0 0.00 0.00 0.00 93 1013.2
20260510070926 60 350 0.0 0.0 0.00 0.00 0.00 93 1013.2
20260510070833 60 350 0.0 0.0 0.00 0.00 0.00 93 1013.2
20260510070740 60 350 0.0 0.0 0.00 0.00 0.00 93 1013.3
20260510070648 60 350 0.0 0.0 0.00 0.00 0.00 93 1013.3
20260510070557 60 350 0.0 0.0 0.00 0.00 0.00 93 1013.2
20260510070314 60 350 0.0 0.0 0.00 0.00 0.00 93 1013.2
20260510070242 60 350 0.0 0.0 0.00 0.00 0.00 93 1013.2
20260510070128 60 350 0.0 0.0 0.00 0.00 0.00 93 1013.1
20260510070016 60 350 0.0 0.0 0.00 0.00 0.00 93 1013.2
20260510065944 60 350 0.0 0.0 0.00 0.00 0.00 93 1013.2
20260510065850 60 350 0.0 0.0 0.00 0.00 0.00 93 1013.2
20260510065716 60 350 0.0 0.0 0.00 0.00 0.00 93 1013.1
20260510065626 60 350 0.0 0.0 0.00 0.00 0.00 93 1013.1
20260510065514 60 350 0.0 0.0 0.00 0.00 0.00 92 1013.2
20260510065421 60 350 0.0 0.0 0.00 0.00 0.00 92 1013.2
20260510065329 60 350 0.0 0.0 0.00 0.00 0.00 92 1013.1
20260510065216 60 350 0.0 0.0 0.00 0.00 0.00 92 1013.2
20260510065057 61 350 0.0 0.0 0.00 0.00 0.00 92 1013.2
20260510064830 61 350 0.0 0.0 0.00 0.00 0.00 92 1013.1
20260510064717 61 350 0.0 0.0 0.00 0.00 0.00 92 1013.1
20260510064625 61 348 0.0 0.0 0.00 0.00 0.00 92 1013.1
20260510064517 61 238 0.0 0.0 0.00 0.00 0.00 92 1013.3
20260510064425 61 238 0.0 0.0 0.00 0.00 0.00 92 1013.3
20260510064313 61 238 0.0 0.0 0.00 0.00 0.00 92 1013.1
20260510064220 61 238 0.0 0.0 0.00 0.00 0.00 92 1013.1
20260510064127 61 238 0.0 0.0 0.00 0.00 0.00 92 1013.2
20260510064034 61 238 0.0 0.0 0.00 0.00 0.00 92 1013.2
20260510063925 61 238 0.0 0.0 0.00 0.00 0.00 92 1013.2
20260510063852 61 238 0.0 0.0 0.00 0.00 0.00 92 1013.2
20260510063719 61 238 0.0 0.0 0.00 0.00 0.00 92 1013.3
20260510063628 61 238 0.0 0.0 0.00 0.00 0.00 92 1013.3
20260510063558 61 238 0.0 0.0 0.00 0.00 0.00 92 1013.2
20260510063314 61 238 0.0 0.0 0.00 0.00 0.00 92 1013.3
20260510063223 61 238 0.0 0.0 0.00 0.00 0.00 92 1013.3
20260510063130 61 238 0.0 0.0 0.00 0.00 0.00 92 1013.3
20260510063017 61 238 0.0 0.0 0.00 0.00 0.00 91 1013.3
20260510062923 61 238 0.0 0.0 0.00 0.00 0.00 91 1013.3
20260510062814 62 238 0.0 0.0 0.00 0.00 0.00 91 1013.3
20260510062722 62 238 0.0 0.0 0.00 0.00 0.00 91 1013.3
20260510062630 62 238 0.0 0.0 0.00 0.00 0.00 91 1013.3
20260510062517 62 238 0.0 0.0 0.00 0.00 0.00 91 1013.3
20260510062444 62 238 0.0 0.0 0.00 0.00 0.00 91 1013.3
20260510062330 62 238 0.0 0.0 0.00 0.00 0.00 91 1013.3
20260510062222 62 238 0.0 0.0 0.00 0.00 0.00 91 1013.2
20260510062059 62 238 0.0 0.0 0.00 0.00 0.00 91 1013.3
20260510061813 62 138 0.0 0.0 0.00 0.00 0.00 91 1013.3
20260510061720 62 138 0.0 0.0 0.00 0.00 0.00 91 1013.3
20260510061631 62 138 0.0 0.0 0.00 0.00 0.00 91 1013.3
20260510061519 62 138 0.0 0.0 0.00 0.00 0.00 91 1013.3
20260510061427 62 138 0.0 0.0 0.00 0.00 0.00 91 1013.3
20260510061315 62 138 0.0 0.0 0.00 0.00 0.00 91 1013.3
20260510061222 62 138 0.0 0.0 0.00 0.00 0.00 91 1013.3
20260510061113 62 138 0.0 0.0 0.00 0.00 0.00 91 1013.3
20260510061021 62 138 0.0 0.0 0.00 0.00 0.00 91 1013.3
20260510060929 62 138 0.0 0.0 0.00 0.00 0.00 91 1013.2
20260510060836 62 138 0.0 0.0 0.00 0.00 0.00 91 1013.3
20260510060722 63 138 0.0 0.0 0.00 0.00 0.00 91 1013.3
20260510060650 63 138 0.0 0.0 0.00 0.00 0.00 91 1013.4
20260510060625 63 138 0.0 0.0 0.00 0.00 0.00 91 1013.3
20260510060317 63 138 0.0 0.0 0.00 0.00 0.00 92 1013.4
20260510060225 63 138 0.0 0.0 0.00 0.00 0.00 92 1013.4
20260510060113 63 138 0.0 0.0 0.00 0.00 0.00 92 1013.5
20260510060020 63 138 0.0 0.0 0.00 0.00 0.00 92 1013.5
20260510055931 63 138 0.0 0.0 0.00 0.00 0.00 92 1013.4
20260510055818 63 138 0.0 0.0 0.00 0.00 0.00 92 1013.4
20260510055745 63 138 0.0 0.0 0.00 0.00 0.00 92 1013.4
20260510055613 63 138 0.0 0.0 0.00 0.00 0.00 92 1013.4
20260510055520 63 138 0.0 0.0 0.00 0.00 0.00 91 1013.4
20260510055447 63 138 0.0 0.0 0.00 0.00 0.00 91 1013.5
20260510055334 63 138 0.0 0.0 0.00 0.00 0.00 91 1013.5
20260510055226 63 138 0.0 0.0 0.00 0.00 0.00 91 1013.5
20260510055154 63 138 0.0 0.0 0.00 0.00 0.00 91 1013.4
20260510055104 63 138 0.0 0.0 0.00 0.00 0.00 91 1013.4
20260510054837 63 138 0.0 0.0 0.00 0.00 0.00 92 1013.5
20260510054723 63 138 0.0 0.0 0.00 0.00 0.00 92 1013.5
20260510054615 63 138 0.0 0.0 0.00 0.00 0.00 91 1013.4
20260510054522 63 138 0.0 0.0 0.00 0.00 0.00 91 1013.4
20260510054430 63 138 0.0 0.0 0.00 0.00 0.00 91 1013.5
20260510054317 63 138 0.0 0.0 0.00 0.00 0.00 91 1013.4
20260510054224 63 138 0.0 0.0 0.00 0.00 0.00 91 1013.4
20260510054132 63 138 0.0 0.0 0.00 0.00 0.00 91 1013.5
20260510054023 63 138 0.0 0.0 0.00 0.00 0.00 91 1013.5
20260510053930 63 138 0.0 0.0 0.00 0.00 0.00 91 1013.4
20260510053818 63 138 0.0 0.0 0.00 0.00 0.00 91 1013.4
20260510053725 63 138 0.0 0.0 0.00 0.00 0.00 91 1013.4
20260510053612 63 138 0.0 0.0 0.00 0.00 0.00 91 1013.5
20260510053547 63 138 0.0 0.0 0.00 0.00 0.00 91 1013.5
20260510053321 63 138 0.0 0.0 0.00 0.00 0.00 91 1013.4
20260510053228 63 138 0.0 0.0 0.00 0.00 0.00 91 1013.4
20260510053134 63 138 0.0 0.0 0.00 0.00 0.00 91 1013.4
20260510053021 63 138 0.0 0.0 0.00 0.00 0.00 91 1013.5
20260510052934 63 138 0.0 0.0 0.00 0.00 0.00 91 1013.5
20260510052820 63 138 0.0 0.0 0.00 0.00 0.00 91 1013.5
20260510052727 63 138 0.0 0.0 0.00 0.00 0.00 91 1013.5
20260510052615 63 138 0.0 0.0 0.00 0.00 0.00 91 1013.5
20260510052522 63 138 0.0 0.0 0.00 0.00 0.00 91 1013.4
20260510052429 63 138 0.0 0.0 0.00 0.00 0.00 91 1013.4
20260510052321 63 175 0.0 0.0 0.00 0.00 0.00 91 1013.5
20260510052229 63 175 0.0 0.0 0.00 0.00 0.00 91 1013.5
20260510052118 63 175 0.0 0.0 0.00 0.00 0.00 91 1013.5
20260510052049 63 175 0.0 0.0 0.00 0.00 0.00 91 1013.5
20260510051828 63 175 0.0 0.0 0.00 0.00 0.00 91 1013.5
20260510051715 63 175 0.0 0.0 0.00 0.00 0.00 91 1013.4
20260510051622 63 175 0.0 0.0 0.00 0.00 0.00 91 1013.4
20260510051529 63 175 0.0 0.0 0.00 0.00 0.00 91 1013.5
20260510051416 63 175 0.0 0.0 0.00 0.00 0.00 91 1013.5
20260510051323 63 175 0.0 0.0 0.00 0.00 0.00 91 1013.5
20260510051214 64 175 0.0 0.0 0.00 0.00 0.00 91 1013.4
20260510051121 63 175 0.0 0.0 0.00 0.00 0.00 91 1013.3
20260510051029 63 175 0.0 0.0 0.00 0.00 0.00 91 1013.3
20260510050916 63 175 0.0 0.0 0.00 0.00 0.00 91 1013.4
20260510050823 63 175 0.0 0.0 0.00 0.00 0.00 91 1013.4
20260510050714 63 175 0.0 0.0 0.00 0.00 0.00 91 1013.4
20260510050622 63 175 0.0 0.0 0.00 0.00 0.00 91 1013.4
20260510050553 63 175 0.0 0.0 0.00 0.00 0.00 90 1013.4
20260510050326 63 175 0.0 0.0 0.00 0.00 0.00 89 1013.3
20260510050235 64 175 0.0 0.0 0.00 0.00 0.00 89 1013.3
20260510050145 64 175 0.0 0.0 0.00 0.00 0.00 89 1013.3
20260510050032 64 175 0.0 0.0 0.00 0.00 0.00 89 1013.4
20260510045939 64 175 0.0 0.0 0.00 0.00 0.00 89 1013.3
20260510045824 64 175 0.0 0.0 0.00 0.00 0.00 89 1013.3
20260510045752 64 175 0.0 0.0 0.00 0.00 0.00 89 1013.4
20260510045618 64 175 0.0 0.0 0.00 0.00 0.00 89 1013.3
20260510045526 64 175 0.0 0.0 0.00 0.00 0.00 89 1013.3
20260510045418 64 175 0.0 0.0 0.00 0.00 0.00 89 1013.3
20260510045326 64 175 0.0 0.0 0.00 0.00 0.00 89 1013.3
20260510045213 64 175 0.0 0.0 0.00 0.00 0.00 89 1013.3
20260510045121 64 175 0.0 0.0 0.00 0.00 0.00 88 1013.4
20260510045056 64 175 0.0 0.0 0.00 0.00 0.00 89 1013.4
20260510044830 64 175 0.0 0.0 0.00 0.00 0.00 89 1013.4
20260510044716 64 175 0.0 0.0 0.00 0.00 0.00 89 1013.5
20260510044624 64 175 0.0 0.0 0.00 0.00 0.00 89 1013.5
20260510044531 64 175 0.0 0.0 0.00 0.00 0.00 89 1013.5
20260510044439 65 175 0.0 0.0 0.00 0.00 0.00 89 1013.4
20260510044328 65 175 0.0 0.0 0.00 0.00 0.00 89 1013.4
20260510044216 65 175 0.0 0.0 0.00 0.00 0.00 89 1013.5
20260510044122 65 175 0.0 0.0 0.00 0.00 0.00 89 1013.5
20260510044031 65 175 0.0 0.0 0.00 0.00 0.00 89 1013.4
20260510043939 65 175 0.0 0.0 0.00 0.00 0.00 89 1013.4
20260510043827 65 175 0.0 0.0 0.00 0.00 0.00 88 1013.4
20260510043718 65 175 0.0 0.0 0.00 0.00 0.00 88 1013.5
20260510043645 65 175 0.0 0.0 0.00 0.00 0.00 88 1013.5
20260510043554 65 175 0.0 0.0 0.00 0.00 0.00 88 1013.5
20260510043348 65 175 0.0 0.0 0.00 0.00 0.00 88 1013.5
20260510043233 65 175 0.0 0.0 0.00 0.00 0.00 88 1013.6
20260510043119 65 175 0.0 0.0 0.00 0.00 0.00 88 1013.6
20260510043029 65 175 0.0 0.0 0.00 0.00 0.00 88 1013.6
20260510042916 65 175 0.0 0.0 0.00 0.00 0.00 89 1013.7
20260510042824 65 175 0.0 0.0 0.00 0.00 0.00 89 1013.7
20260510042751 65 175 0.0 0.0 0.00 0.00 0.00 88 1013.6
20260510042617 65 175 0.0 0.0 0.00 0.00 0.00 88 1013.6
20260510042525 65 175 0.0 0.0 0.00 0.00 0.00 88 1013.6
20260510042435 65 175 0.0 0.0 0.00 0.00 0.00 88 1013.7
20260510042321 65 175 0.0 0.0 0.00 0.00 0.00 88 1013.6
20260510042228 65 175 0.0 0.0 0.00 0.00 0.00 88 1013.6
20260510042114 65 175 0.0 0.0 0.00 0.00 0.00 88 1013.7
20260510042050 65 175 0.0 0.0 0.00 0.00 0.00 88 1013.7
20260510041823 65 175 0.0 0.0 0.00 0.00 0.00 88 1013.6
20260510041730 65 175 0.0 0.0 0.00 0.00 0.00 88 1013.7
20260510041617 65 175 0.0 0.0 0.00 0.00 0.00 88 1013.7
20260510041526 65 175 0.0 0.0 0.00 0.00 0.00 88 1013.7
20260510041414 65 175 0.0 0.0 0.00 0.00 0.00 89 1013.7
20260510041326 65 175 0.0 0.0 0.00 0.00 0.00 89 1013.7
20260510041214 65 175 0.0 0.0 0.00 0.00 0.00 89 1013.7
20260510041123 65 175 0.0 0.0 0.00 0.00 0.00 88 1013.7
20260510041030 65 175 0.0 0.0 0.00 0.00 0.00 88 1013.7
20260510040918 65 175 0.0 0.0 0.00 0.00 0.00 88 1013.6
20260510040829 65 175 0.0 0.0 0.00 0.00 0.00 88 1013.6
20260510040718 65 175 0.0 0.0 0.00 0.00 0.00 88 1013.6
20260510040624 65 175 0.0 0.0 0.00 0.00 0.00 88 1013.6
20260510040556 65 175 0.0 0.0 0.00 0.00 0.00 88 1013.5
20260510040349 65 175 0.0 0.0 0.00 0.00 0.00 88 1013.6
20260510040220 65 175 0.0 0.0 0.00 0.00 0.00 88 1013.6
20260510040149 66 175 0.0 0.0 0.00 0.00 0.00 88 1013.6
20260510040017 66 175 0.0 0.0 0.00 0.00 0.00 88 1013.7
20260510035923 66 175 0.0 0.0 0.00 0.00 0.00 87 1013.7
20260510035812 66 163 0.0 0.0 0.00 0.00 0.00 87 1013.7
20260510035720 66 163 0.0 0.9 0.00 0.00 0.00 87 1013.5
20260510035612 66 163 0.0 0.9 0.00 0.00 0.00 87 1013.5
20260510035518 66 163 0.0 0.9 0.00 0.00 0.00 87 1013.6
20260510035427 66 163 0.0 0.9 0.00 0.00 0.00 87 1013.6
20260510035316 66 163 0.0 0.9 0.00 0.00 0.00 87 1013.5
20260510035223 66 163 0.0 0.9 0.00 0.00 0.00 87 1013.5
20260510035115 66 163 0.0 0.9 0.00 0.00 0.00 87 1013.5
20260510035046 66 163 0.0 0.9 0.00 0.00 0.00 87 1013.5
20260510034819 66 163 0.0 0.9 0.00 0.00 0.00 87 1013.6
20260510034748 66 163 0.0 0.9 0.00 0.00 0.00 87 1013.6
20260510034633 66 163 0.0 0.9 0.00 0.00 0.00 86 1013.5
20260510034520 66 163 0.0 0.9 0.00 0.00 0.00 86 1013.6
20260510034431 66 163 0.0 1.7 0.00 0.00 0.00 86 1013.6
20260510034318 66 163 0.0 1.7 0.00 0.00 0.00 86 1013.5
20260510034245 66 163 0.0 1.7 0.00 0.00 0.00 86 1013.5
20260510034131 66 163 0.0 1.7 0.00 0.00 0.00 86 1013.5
20260510034018 66 182 0.0 1.7 0.00 0.00 0.00 86 1013.5
20260510033925 66 182 0.0 1.7 0.00 0.00 0.00 86 1013.5
20260510033817 66 182 0.0 2.6 0.00 0.00 0.00 86 1013.5
20260510033725 66 182 0.0 2.6 0.00 0.00 0.00 86 1013.5
20260510033633 66 172 0.9 2.6 0.00 0.00 0.00 86 1013.5
20260510033603 66 172 0.9 2.6 0.00 0.00 0.00 86 1013.5
20260510033322 67 197 0.0 2.6 0.00 0.00 0.00 86 1013.5
20260510033229 67 197 0.0 2.6 0.00 0.00 0.00 86 1013.5
20260510033116 67 197 0.0 2.6 0.00 0.00 0.00 86 1013.6
20260510033023 67 197 0.9 2.6 0.00 0.00 0.00 86 1013.6
20260510032930 67 197 0.9 2.6 0.00 0.00 0.00 86 1013.7
20260510032822 67 205 0.9 2.6 0.00 0.00 0.00 86 1013.6
20260510032730 67 192 0.9 3.5 0.00 0.00 0.00 86 1013.6
20260510032637 67 191 1.7 3.5 0.00 0.00 0.00 86 1013.6
20260510032522 67 188 1.7 3.5 0.00 0.00 0.00 86 1013.6
20260510032430 67 215 1.7 3.5 0.00 0.00 0.00 85 1013.6
20260510032316 67 192 0.9 3.5 0.00 0.00 0.00 85 1013.5
20260510032227 67 209 1.7 3.5 0.00 0.00 0.00 85 1013.5
20260510032135 67 201 1.7 3.5 0.00 0.00 0.00 85 1013.5
20260510032106 67 195 1.7 3.5 0.00 0.00 0.00 85 1013.6
20260510031819 67 206 1.7 4.3 0.00 0.00 0.00 85 1013.6
20260510031726 67 206 1.7 4.3 0.00 0.00 0.00 85 1013.6
20260510031618 67 206 1.7 4.3 0.00 0.00 0.00 85 1013.5
20260510031525 67 200 1.7 4.3 0.00 0.00 0.00 85 1013.5
20260510031414 67 202 2.6 4.3 0.00 0.00 0.00 85 1013.7
20260510031322 67 174 2.6 4.3 0.00 0.00 0.00 85 1013.7
20260510031228 67 180 1.7 4.3 0.00 0.00 0.00 85 1013.5
20260510031119 67 188 1.7 4.3 0.00 0.00 0.00 85 1013.5
20260510031025 67 203 1.7 3.5 0.00 0.00 0.00 85 1013.5
20260510030953 67 234 1.7 3.5 0.00 0.00 0.00 85 1013.6
20260510030817 67 215 2.6 3.5 0.00 0.00 0.00 85 1013.6
20260510030724 67 192 1.7 3.5 0.00 0.00 0.00 84 1013.6
20260510030613 67 194 1.7 2.6 0.00 0.00 0.00 84 1013.4
20260510030547 67 213 0.9 2.6 0.00 0.00 0.00 84 1013.4
20260510030341 67 205 1.7 4.3 0.00 0.00 0.00 84 1013.5
20260510030247 67 227 1.7 4.3 0.00 0.00 0.00 84 1013.5
20260510030112 67 216 0.9 4.3 0.00 0.00 0.00 84 1013.5
20260510030040 68 190 0.9 4.3 0.00 0.00 0.00 84 1013.5
20260510025948 68 190 0.9 4.3 0.00 0.00 0.00 84 1013.5
20260510025818 68 196 1.7 4.3 0.00 0.00 0.00 84 1013.5
20260510025746 68 217 2.6 4.3 0.00 0.00 0.00 84 1013.5
20260510025613 68 215 2.6 4.3 0.00 0.00 0.00 84 1013.4
20260510025521 68 196 2.6 4.3 0.00 0.00 0.00 84 1013.4
20260510025427 68 202 2.6 4.3 0.00 0.00 0.00 84 1013.4
20260510025314 68 198 2.6 4.3 0.00 0.00 0.00 84 1013.3
20260510025227 68 198 2.6 4.3 0.00 0.00 0.00 83 1013.3
20260510025154 68 205 1.7 4.3 0.00 0.00 0.00 83 1013.2
20260510025102 68 205 2.6 4.3 0.00 0.00 0.00 83 1013.2
20260510024816 68 201 3.5 5.2 0.00 0.00 0.00 83 1013.2
20260510024722 68 221 3.5 5.2 0.00 0.00 0.00 83 1013.2
20260510024614 68 190 2.6 5.2 0.00 0.00 0.00 83 1013.2
20260510024522 68 232 2.6 5.2 0.00 0.00 0.00 83 1013.2
20260510024429 68 163 2.6 5.2 0.00 0.00 0.00 83 1013.2
20260510024316 68 205 2.6 5.2 0.00 0.00 0.00 83 1013.2
20260510024223 68 188 3.5 5.2 0.00 0.00 0.00 83 1013.2
20260510024116 68 202 2.6 5.2 0.00 0.00 0.00 83 1013.2
20260510024022 68 188 2.6 5.2 0.00 0.00 0.00 83 1013.2
20260510023931 68 205 2.6 5.2 0.00 0.00 0.00 83 1013.2
20260510023838 68 199 3.5 5.2 0.00 0.00 0.00 83 1013.1
20260510023724 68 200 3.5 5.2 0.00 0.00 0.00 82 1013.1
20260510023612 68 173 2.6 5.2 0.00 0.00 0.00 82 1013.1
20260510023546 68 192 2.6 5.2 0.00 0.00 0.00 82 1013.1
20260510023320 68 192 1.7 4.3 0.00 0.00 0.00 82 1013.1
20260510023226 68 175 2.6 4.3 0.00 0.00 0.00 82 1013.1
20260510023114 68 217 2.6 3.5 0.00 0.00 0.00 82 1013.1
20260510023021 68 173 2.6 3.5 0.00 0.00 0.00 82 1013.0
20260510022931 69 189 1.7 3.5 0.00 0.00 0.00 81 1013.0
20260510022819 69 185 2.6 3.5 0.00 0.00 0.00 81 1012.9
20260510022727 69 198 2.6 3.5 0.00 0.00 0.00 81 1012.9
20260510022615 69 176 1.7 3.5 0.00 0.00 0.00 81 1012.9
20260510022543 69 202 1.7 3.5 0.00 0.00 0.00 81 1012.9
20260510022414 69 212 1.7 3.5 0.00 0.00 0.00 81 1012.9
20260510022322 69 200 1.7 3.5 0.00 0.00 0.00 81 1012.9
20260510022228 69 169 1.7 3.5 0.00 0.00 0.00 81 1012.9
20260510022116 69 187 1.7 3.5 0.00 0.00 0.00 81 1012.8
20260510022046 69 178 0.9 2.6 0.00 0.00 0.00 81 1012.8
20260510021824 69 180 0.0 2.6 0.00 0.00 0.00 80 1012.7
20260510021712 69 181 0.9 2.6 0.00 0.00 0.00 80 1012.7
20260510021619 69 181 0.9 2.6 0.00 0.00 0.00 80 1012.7
20260510021526 69 184 0.9 2.6 0.00 0.00 0.00 80 1012.7
20260510021414 69 174 0.9 2.6 0.00 0.00 0.00 80 1012.7
20260510021325 69 187 0.9 2.6 0.00 0.00 0.00 80 1012.7
20260510021212 69 175 0.9 2.6 0.00 0.00 0.00 80 1012.6
20260510021140 69 180 0.9 2.6 0.00 0.00 0.00 79 1012.5
20260510021026 69 149 0.9 2.6 0.00 0.00 0.00 79 1012.5
20260510020914 69 149 0.0 2.6 0.00 0.00 0.00 79 1012.4
20260510020821 69 149 0.0 2.6 0.00 0.00 0.00 79 1012.5
20260510020733 69 137 0.9 2.6 0.00 0.00 0.00 79 1012.5
20260510020701 69 137 0.9 2.6 0.00 0.00 0.00 79 1012.4
20260510020612 69 137 0.9 2.6 0.00 0.00 0.00 79 1012.4
20260510020325 70 184 0.9 3.5 0.00 0.00 0.00 79 1012.3
20260510020213 70 178 0.0 3.5 0.00 0.00 0.00 79 1012.3
20260510020125 70 178 0.0 3.5 0.00 0.00 0.00 79 1012.3
20260510020012 70 178 0.9 3.5 0.00 0.00 0.00 79 1012.3
20260510015921 70 178 0.9 3.5 0.00 0.00 0.00 79 1012.2
20260510015829 70 192 1.7 3.5 0.00 0.00 0.00 79 1012.2
20260510015737 70 201 1.7 3.5 0.00 0.00 0.00 79 1012.2
20260510015623 70 184 1.7 4.3 0.00 0.00 0.00 78 1012.2
20260510015514 70 202 1.7 4.3 0.00 0.00 0.00 78 1012.2
20260510015421 70 173 1.7 4.3 0.00 0.00 0.00 78 1012.3
20260510015329 70 200 0.9 4.3 0.00 0.00 0.00 78 1012.3
20260510015216 70 207 0.9 4.3 0.00 0.00 0.00 78 1012.1
20260510015124 70 175 1.7 4.3 0.00 0.00 0.00 78 1012.1
20260510015058 70 175 1.7 4.3 0.00 0.00 0.00 78 1012.2
20260510014812 70 190 1.7 6.1 0.00 0.00 0.00 78 1012.1
20260510014739 70 170 1.7 6.1 0.00 0.00 0.00 78 1012.0
20260510014625 70 208 1.7 6.1 0.00 0.00 0.00 78 1012.0
20260510014533 70 153 1.7 6.1 0.00 0.00 0.00 78 1012.0
20260510014420 70 180 2.6 6.1 0.00 0.00 0.00 78 1011.9
20260510014351 70 141 2.6 6.1 0.00 0.00 0.00 78 1011.9
20260510014218 70 157 2.6 6.1 0.00 0.00 0.00 78 1012.0
20260510014124 70 153 3.5 6.1 0.00 0.00 0.00 78 1012.0
20260510014012 70 141 2.6 4.3 0.00 0.00 0.00 78 1012.0
20260510013918 70 142 2.6 4.3 0.00 0.00 0.00 78 1011.9
20260510013827 70 130 2.6 4.3 0.00 0.00 0.00 78 1011.9
20260510013739 70 153 2.6 4.3 0.00 0.00 0.00 78 1011.9
20260510013706 70 141 2.6 4.3 0.00 0.00 0.00 78 1011.8
20260510013616 70 157 2.6 5.2 0.00 0.00 0.00 78 1011.8
20260510013328 70 141 1.7 5.2 0.00 0.00 0.00 78 1011.8
20260510013216 70 155 1.7 5.2 0.00 0.00 0.00 78 1011.8
20260510013128 70 130 1.7 5.2 0.00 0.00 0.00 77 1011.8
20260510013016 70 150 1.7 5.2 0.00 0.00 0.00 77 1011.8
20260510012924 70 127 2.6 5.2 0.00 0.00 0.00 77 1011.8
20260510012833 70 153 1.7 6.1 0.00 0.00 0.00 77 1011.7
20260510012719 71 149 1.7 6.1 0.00 0.00 0.00 77 1011.7
20260510012626 71 124 2.6 6.1 0.00 0.00 0.00 77 1011.7
20260510012519 71 128 1.7 6.1 0.00 0.00 0.00 77 1011.7
20260510012426 71 102 1.7 6.1 0.00 0.00 0.00 77 1011.7
20260510012314 71 157 2.6 6.1 0.00 0.00 0.00 77 1011.6
20260510012221 71 130 3.5 6.1 0.00 0.00 0.00 76 1011.6
20260510012127 71 125 3.5 6.1 0.00 0.00 0.00 76 1011.6
20260510012101 71 139 3.5 6.1 0.00 0.00 0.00 76 1011.6
20260510011814 71 135 1.7 5.2 0.00 0.00 0.00 76 1011.5
20260510011726 71 137 1.7 4.3 0.00 0.00 0.00 77 1011.5
20260510011650 71 136 1.7 6.1 0.00 0.00 0.00 76 1011.5
20260510011538 71 153 2.6 7.8 0.00 0.00 0.00 76 1011.6
20260510011425 71 130 2.6 7.8 0.00 0.00 0.00 76 1011.6
20260510011315 71 126 1.7 7.8 0.00 0.00 0.00 76 1011.6
20260510011223 71 136 1.7 7.8 0.00 0.00 0.00 76 1011.6
20260510011131 71 126 2.6 7.8 0.00 0.00 0.00 76 1011.6
20260510011017 71 156 3.5 7.8 0.00 0.00 0.00 76 1011.6
20260510010926 71 129 4.3 7.8 0.00 0.00 0.00 76 1011.6
20260510010818 71 142 5.2 7.8 0.00 0.00 0.00 76 1011.5
20260510010725 71 136 4.3 7.8 0.00 0.00 0.00 76 1011.5
20260510010654 71 123 4.3 7.8 0.00 0.00 0.00 76 1011.5
20260510010602 71 112 3.5 7.0 0.00 0.00 0.00 76 1011.5
20260510010316 72 146 3.5 6.1 0.00 0.00 0.00 75 1011.4
20260510010244 72 138 2.6 5.2 0.00 0.00 0.00 75 1011.4
20260510010115 72 133 2.6 4.3 0.00 0.00 0.00 75 1011.4
20260510010022 72 152 2.6 4.3 0.00 0.00 0.00 75 1011.4
20260510005950 72 152 1.7 4.3 0.00 0.00 0.00 75 1011.3
20260510005818 72 126 1.7 6.1 0.00 0.00 0.00 75 1011.3
20260510005724 72 150 1.7 6.1 0.00 0.00 0.00 75 1011.3
20260510005616 72 136 1.7 6.1 0.00 0.00 0.00 75 1011.3
20260510005524 72 205 1.7 6.1 0.00 0.00 0.00 75 1011.3
20260510005431 72 183 2.6 6.1 0.00 0.00 0.00 75 1011.2
20260510005318 72 154 2.6 6.1 0.00 0.00 0.00 75 1011.3
20260510005225 72 177 2.6 6.1 0.00 0.00 0.00 74 1011.3
20260510005112 72 190 3.5 6.1 0.00 0.00 0.00 74 1011.2
20260510005047 72 198 3.5 6.1 0.00 0.00 0.00 74 1011.2
20260510004822 72 136 3.5 6.1 0.00 0.00 0.00 74 1011.2
20260510004728 72 146 3.5 6.1 0.00 0.00 0.00 74 1011.3
20260510004617 72 140 2.6 6.1 0.00 0.00 0.00 74 1011.2
20260510004528 72 158 2.6 6.1 0.00 0.00 0.00 74 1011.2
20260510004415 72 143 3.5 7.8 0.00 0.00 0.00 74 1011.1
20260510004342 72 202 3.5 7.8 0.00 0.00 0.00 74 1011.1
20260510004230 72 196 3.5 7.8 0.00 0.00 0.00 74 1011.1
20260510004117 72 189 3.5 7.8 0.00 0.00 0.00 73 1011.1
20260510004044 72 202 3.5 7.8 0.00 0.00 0.00 73 1011.1
20260510003914 72 178 3.5 7.8 0.00 0.00 0.00 73 1011.0
20260510003821 72 178 3.5 7.8 0.00 0.00 0.00 73 1010.9
20260510003728 72 179 3.5 7.8 0.00 0.00 0.00 73 1010.9
20260510003635 73 186 3.5 5.2 0.00 0.00 0.00 73 1011.0
20260510003605 73 195 2.6 5.2 0.00 0.00 0.00 73 1010.9
20260510003322 73 197 1.7 5.2 0.00 0.00 0.00 73 1011.0
20260510003229 73 163 2.6 5.2 0.00 0.00 0.00 73 1010.9
20260510003117 73 196 3.5 5.2 0.00 0.00 0.00 72 1010.9
20260510003044 73 205 3.5 5.2 0.00 0.00 0.00 72 1010.9
20260510002930 73 210 3.5 6.1 0.00 0.00 0.00 72 1010.8
20260510002818 73 197 3.5 6.1 0.00 0.00 0.00 72 1010.8
20260510002729 73 198 3.5 6.1 0.00 0.00 0.00 72 1010.8
20260510002616 73 224 3.5 6.1 0.00 0.00 0.00 72 1010.8
20260510002544 73 196 3.5 6.1 0.00 0.00 0.00 72 1010.8
20260510002431 73 199 3.5 6.1 0.00 0.00 0.00 72 1010.7
20260510002319 73 199 2.6 6.1 0.00 0.00 0.00 71 1010.8
20260510002226 74 208 2.6 6.1 0.00 0.00 0.00 71 1010.8
20260510002137 74 210 1.7 6.1 0.00 0.00 0.00 71 1010.8
20260510002047 74 167 1.7 6.1 0.00 0.00 0.00 70 1010.8
20260510001820 74 166 1.7 7.0 0.00 0.00 0.00 69 1010.8
20260510001728 74 191 2.6 7.0 0.00 0.00 0.00 69 1010.8
20260510001636 74 194 3.5 7.0 0.00 0.00 0.00 69 1010.6
20260510001526 74 211 4.3 7.0 0.00 0.00 0.00 69 1010.6
20260510001415 74 165 4.3 7.0 0.00 0.00 0.00 69 1010.7
20260510001322 74 186 4.3 7.0 0.00 0.00 0.00 68 1010.7
20260510001231 74 178 4.3 7.0 0.00 0.00 0.00 68 1010.7
20260510001118 74 165 3.5 6.1 0.00 0.00 0.00 67 1010.7
20260510001030 74 188 3.5 5.2 0.00 0.00 0.00 66 1010.7
20260510000917 74 178 1.7 4.3 0.00 0.00 0.00 66 1010.7
20260510000845 74 204 1.7 3.5 0.00 0.00 0.00 65 1010.7
20260510000733 74 203 0.9 2.6 0.00 0.00 0.00 64 1010.7
20260510000619 74 203 0.9 2.6 0.00 0.00 0.00 65 1010.7
20260510000554 74 203 0.9 2.6 0.00 0.00 0.00 65 1010.7
20260510000328 74 348 0.9 1.7 0.00 0.00 0.00 65 1010.6
20260510000218 75 348 0.9 0.9 0.00 0.00 0.00 65 1010.6
20260510000124 75 348 0.0 0.9 0.00 0.00 0.00 65 1010.6
20260510000052 75 348 0.0 0.9 0.00 0.00 0.00 65 1010.7
20260509235920 75 348 0.0 0.9 0.00 0.00 0.00 64 1010.6
20260509235831 75 348 0.0 0.9 0.00 0.00 0.00 63 1010.6
20260509235718 75 348 0.0 0.9 0.00 0.00 0.00 63 1010.6
20260509235625 75 348 0.0 0.9 0.00 0.00 0.00 63 1010.6
20260509235531 75 348 0.0 0.9 0.00 0.00 0.00 62 1010.5
20260509235439 75 348 0.0 0.9 0.00 0.00 0.00 63 1010.5
20260509235326 75 348 0.0 0.0 0.00 0.00 0.00 63 1010.5
20260509235238 75 348 0.0 0.9 0.00 0.00 0.00 62 1010.5
20260509235123 75 348 0.0 0.9 0.00 0.00 0.00 63 1010.5
20260509235054 75 348 0.0 0.9 0.00 0.00 0.00 62 1010.5
20260509234827 75 348 0.0 0.9 0.00 0.00 0.00 63 1010.5
20260509234714 75 348 0.0 0.9 0.00 0.00 0.00 63 1010.6
20260509234627 75 348 0.0 0.9 0.00 0.00 0.00 64 1010.6
20260509234533 75 348 0.0 0.9 0.00 0.00 0.00 64 1010.5
20260509234420 75 348 0.0 0.9 0.00 0.00 0.00 64 1010.4
20260509234326 75 348 0.0 0.9 0.00 0.00 0.00 63 1010.4
20260509234213 75 348 0.0 2.6 0.00 0.00 0.00 63 1010.4
20260509234121 75 348 0.0 2.6 0.00 0.00 0.00 63 1010.5
20260509234032 75 348 0.0 2.6 0.00 0.00 0.00 63 1010.5
20260509233920 75 348 0.0 2.6 0.00 0.00 0.00 63 1010.4
20260509233828 75 348 0.0 2.6 0.00 0.00 0.00 63 1010.4
20260509233715 75 348 0.9 2.6 0.00 0.00 0.00 63 1010.3
20260509233622 75 348 0.9 2.6 0.00 0.00 0.00 63 1010.3
20260509233557 75 348 1.7 2.6 0.00 0.00 0.00 63 1010.3
20260509233331 75 348 1.7 2.6 0.00 0.00 0.00 62 1010.2
20260509233219 76 344 0.9 2.6 0.00 0.00 0.00 62 1010.2
20260509233126 75 321 0.9 2.6 0.00 0.00 0.00 62 1010.2
20260509233017 76 321 1.7 2.6 0.00 0.00 0.00 62 1010.4
20260509232945 76 321 1.7 2.6 0.00 0.00 0.00 62 1010.4
20260509232852 76 312 1.7 2.6 0.00 0.00 0.00 63 1010.4
20260509232718 76 304 0.9 1.7 0.00 0.00 0.00 62 1010.4
20260509232626 76 304 0.9 1.7 0.00 0.00 0.00 62 1010.4
20260509232513 76 304 0.0 2.6 0.00 0.00 0.00 63 1010.5
20260509232420 76 304 0.9 2.6 0.00 0.00 0.00 63 1010.6
20260509232312 76 304 0.9 2.6 0.00 0.00 0.00 63 1010.5
20260509232220 76 304 0.9 2.6 0.00 0.00 0.00 63 1010.5
20260509232128 76 304 0.9 2.6 0.00 0.00 0.00 62 1010.5
20260509232058 76 304 0.9 2.6 0.00 0.00 0.00 62 1010.6
20260509231816 76 304 1.7 2.6 0.00 0.00 0.00 62 1010.6
20260509231724 76 306 1.7 2.6 0.00 0.00 0.00 62 1010.6
20260509231612 76 306 1.7 2.6 0.00 0.00 0.00 62 1010.5
20260509231518 76 299 0.9 2.6 0.00 0.00 0.00 62 1010.5
20260509231447 76 294 0.9 2.6 0.00 0.00 0.00 62 1010.5
20260509231314 76 286 0.9 3.5 0.00 0.00 0.00 62 1010.5
20260509231226 76 286 0.9 3.5 0.00 0.00 0.00 62 1010.5
20260509231113 76 263 0.9 3.5 0.00 0.00 0.00 63 1010.5
20260509231021 76 255 0.9 4.3 0.00 0.00 0.00 63 1010.4
20260509230930 76 255 0.9 4.3 0.00 0.00 0.00 63 1010.4
20260509230837 76 271 1.7 4.3 0.00 0.00 0.00 62 1010.4
20260509230723 76 273 1.7 4.3 0.00 0.00 0.00 62 1010.4
20260509230635 76 300 1.7 4.3 0.00 0.00 0.00 61 1010.4
20260509230605 76 348 1.7 4.3 0.00 0.00 0.00 61 1010.4
20260509230318 76 315 2.6 4.3 0.00 0.00 0.00 61 1010.5
20260509230225 76 321 2.6 4.3 0.00 0.00 0.00 61 1010.5
20260509230116 76 340 1.7 3.5 0.00 0.00 0.00 61 1010.4
20260509230022 76 346 1.7 2.6 0.00 0.00 0.00 61 1010.4
20260509225930 76 346 1.7 2.6 0.00 0.00 0.00 61 1010.4
20260509225838 77 346 1.7 3.5 0.00 0.00 0.00 60 1010.4
20260509225725 76 346 1.7 3.5 0.00 0.00 0.00 60 1010.4
20260509225613 77 289 1.7 3.5 0.00 0.00 0.00 61 1010.4
20260509225523 77 304 1.7 3.5 0.00 0.00 0.00 61 1010.4
20260509225431 77 252 1.7 3.5 0.00 0.00 0.00 61 1010.5
20260509225337 77 267 1.7 4.3 0.00 0.00 0.00 61 1010.3
20260509225244 77 293 1.7 4.3 0.00 0.00 0.00 60 1010.3
20260509225130 77 293 1.7 4.3 0.00 0.00 0.00 61 1010.3
20260509225105 77 310 1.7 4.3 0.00 0.00 0.00 60 1010.2
20260509224818 77 312 2.6 4.3 0.00 0.00 0.00 60 1010.3
20260509224725 77 325 2.6 4.3 0.00 0.00 0.00 60 1010.3
20260509224614 77 298 3.5 4.3 0.00 0.00 0.00 60 1010.3
20260509224520 77 344 2.6 4.3 0.00 0.00 0.00 60 1010.4
20260509224413 77 327 1.7 4.3 0.00 0.00 0.00 60 1010.3
20260509224321 77 317 1.7 4.3 0.00 0.00 0.00 60 1010.3
20260509224248 77 315 1.7 4.3 0.00 0.00 0.00 60 1010.3
20260509224113 77 330 2.6 4.3 0.00 0.00 0.00 61 1010.3
20260509224021 77 340 2.6 4.3 0.00 0.00 0.00 61 1010.3
20260509223949 77 348 2.6 4.3 0.00 0.00 0.00 60 1010.3
20260509223816 77 333 2.6 4.3 0.00 0.00 0.00 60 1010.3
20260509223727 77 336 1.7 4.3 0.00 0.00 0.00 60 1010.3
20260509223655 77 259 1.7 4.3 0.00 0.00 0.00 60 1010.3
20260509223604 77 263 2.6 4.3 0.00 0.00 0.00 60 1010.3
20260509223319 77 329 2.6 4.3 0.00 0.00 0.00 60 1010.3
20260509223226 77 334 2.6 4.3 0.00 0.00 0.00 60 1010.3
20260509223136 77 321 2.6 4.3 0.00 0.00 0.00 60 1010.2
20260509223023 77 315 2.6 4.3 0.00 0.00 0.00 60 1010.2
20260509222951 77 310 1.7 4.3 0.00 0.00 0.00 60 1010.2
20260509222817 77 332 0.9 3.5 0.00 0.00 0.00 60 1010.2
20260509222724 77 304 0.9 3.5 0.00 0.00 0.00 60 1010.2
20260509222630 77 275 1.7 3.5 0.00 0.00 0.00 61 1010.2
20260509222522 77 300 1.7 3.5 0.00 0.00 0.00 60 1010.1
20260509222431 77 302 1.7 3.5 0.00 0.00 0.00 61 1010.1
20260509222317 77 335 1.7 3.5 0.00 0.00 0.00 61 1010.2
20260509222225 77 342 1.7 3.5 0.00 0.00 0.00 61 1010.2
20260509222133 77 309 1.7 4.3 0.00 0.00 0.00 61 1010.2
20260509222108 77 311 1.7 4.3 0.00 0.00 0.00 60 1010.2
20260509221839 77 300 1.7 4.3 0.00 0.00 0.00 60 1010.1
20260509221725 77 342 1.7 4.3 0.00 0.00 0.00 60 1010.1
20260509221612 77 325 1.7 4.3 0.00 0.00 0.00 59 1010.1
20260509221540 77 325 1.7 4.3 0.00 0.00 0.00 59 1010.1
20260509221448 77 308 2.6 4.3 0.00 0.00 0.00 60 1010.1
20260509221338 77 281 2.6 4.3 0.00 0.00 0.00 60 1010.1
20260509221223 77 301 3.5 4.3 0.00 0.00 0.00 60 1010.1
20260509221151 77 313 2.6 4.3 0.00 0.00 0.00 60 1010.1
20260509221017 77 338 2.6 5.2 0.00 0.00 0.00 60 1010.1
20260509220924 77 355 2.6 5.2 0.00 0.00 0.00 61 1010.1
20260509220831 77 355 2.6 5.2 0.00 0.00 0.00 61 1010.0
20260509220719 77 351 1.7 7.0 0.00 0.00 0.00 60 1010.1
20260509220650 77 350 2.6 7.0 0.00 0.00 0.00 60 1010.1
20260509220600 77 339 2.6 7.0 0.00 0.00 0.00 60 1010.2
20260509220335 77 344 3.5 7.0 0.00 0.00 0.00 60 1010.2
20260509220222 77 347 3.5 7.0 0.00 0.00 0.00 61 1010.2
20260509220129 77 330 3.5 7.0 0.00 0.00 0.00 60 1010.1
20260509220020 77 323 3.5 7.0 0.00 0.00 0.00 60 1010.1
20260509215927 77 294 3.5 6.1 0.00 0.00 0.00 60 1010.1
20260509215814 77 278 2.6 6.1 0.00 0.00 0.00 60 1010.1
20260509215721 77 292 2.6 5.2 0.00 0.00 0.00 61 1010.1
20260509215648 77 334 2.6 5.2 0.00 0.00 0.00 61 1010.1
20260509215514 77 360 2.6 5.2 0.00 0.00 0.00 61 1010.2
20260509215446 77 334 3.5 5.2 0.00 0.00 0.00 61 1010.2
20260509215313 77 360 3.5 5.2 0.00 0.00 0.00 61 1010.1
20260509215220 77 5 2.6 5.2 0.00 0.00 0.00 60 1010.0
20260509215129 77 360 2.6 5.2 0.00 0.00 0.00 60 1010.0
20260509215059 77 346 2.6 7.0 0.00 0.00 0.00 60 1010.1
20260509214838 77 327 1.7 7.0 0.00 0.00 0.00 60 1010.1
20260509214743 77 294 1.7 7.0 0.00 0.00 0.00 61 1010.1
20260509214628 77 266 1.7 7.0 0.00 0.00 0.00 61 1010.1
20260509214517 77 338 2.6 7.0 0.00 0.00 0.00 61 1010.1
20260509214444 77 322 2.6 7.0 0.00 0.00 0.00 61 1010.1
20260509214330 77 300 2.6 7.0 0.00 0.00 0.00 61 1010.0
20260509214239 77 336 3.5 7.0 0.00 0.00 0.00 61 1010.1
20260509214150 77 344 4.3 7.0 0.00 0.00 0.00 61 1010.1
20260509214016 77 286 4.3 7.0 0.00 0.00 0.00 61 1010.1
20260509213923 77 300 3.5 7.0 0.00 0.00 0.00 61 1010.1
20260509213832 77 258 2.6 6.1 0.00 0.00 0.00 61 1010.0
20260509213720 77 284 2.6 6.1 0.00 0.00 0.00 61 1010.0
20260509213627 77 320 2.6 4.3 0.00 0.00 0.00 61 1010.0
20260509213601 77 355 2.6 4.3 0.00 0.00 0.00 61 1010.1
20260509213316 77 355 2.6 7.0 0.00 0.00 0.00 60 1010.1
20260509213222 77 344 2.6 7.0 0.00 0.00 0.00 61 1010.1
20260509213130 77 319 1.7 7.0 0.00 0.00 0.00 60 1010.0
20260509213022 77 315 0.9 7.0 0.00 0.00 0.00 60 1010.0
20260509212929 77 316 1.7 7.0 0.00 0.00 0.00 60 1010.0
20260509212837 77 323 2.6 7.0 0.00 0.00 0.00 61 1010.0
20260509212723 77 323 3.5 7.0 0.00 0.00 0.00 60 1010.0
20260509212650 77 355 4.3 7.0 0.00 0.00 0.00 61 1009.9
20260509212516 77 323 3.5 5.2 0.00 0.00 0.00 61 1010.0
20260509212424 77 332 2.6 5.2 0.00 0.00 0.00 60 1010.0
20260509212314 77 320 2.6 5.2 0.00 0.00 0.00 61 1010.1
20260509212222 77 338 3.5 5.2 0.00 0.00 0.00 60 1010.1
20260509212130 78 338 2.6 7.0 0.00 0.00 0.00 62 1010.1
20260509212101 77 290 3.5 7.0 0.00 0.00 0.00 62 1010.1
20260509211820 77 279 4.3 7.0 0.00 0.00 0.00 62 1010.0
20260509211727 77 281 3.5 7.0 0.00 0.00 0.00 62 1010.0
20260509211613 77 261 2.6 7.0 0.00 0.00 0.00 61 1010.1
20260509211521 77 313 2.6 7.0 0.00 0.00 0.00 61 1010.1
20260509211430 77 290 2.6 7.0 0.00 0.00 0.00 62 1010.1
20260509211322 77 333 3.5 7.0 0.00 0.00 0.00 62 1010.1
20260509211230 77 332 3.5 7.0 0.00 0.00 0.00 62 1010.0
20260509211118 77 355 2.6 6.1 0.00 0.00 0.00 61 1010.1
20260509211026 77 315 2.6 5.2 0.00 0.00 0.00 62 1010.1
20260509210915 77 355 2.6 7.0 0.00 0.00 0.00 62 1010.2
20260509210822 77 321 2.6 7.8 0.00 0.00 0.00 62 1010.2
20260509210713 77 319 3.5 8.7 0.00 0.00 0.00 62 1010.1
20260509210621 77 337 3.5 8.7 0.00 0.00 0.00 62 1010.1
20260509210551 77 347 3.5 8.7 0.00 0.00 0.00 61 1010.0
20260509210325 77 291 4.3 8.7 0.00 0.00 0.00 60 1010.0
20260509210213 77 302 5.2 8.7 0.00 0.00 0.00 60 1010.0
20260509210121 77 309 6.1 8.7 0.00 0.00 0.00 61 1010.1
20260509210027 77 309 5.2 8.7 0.00 0.00 0.00 60 1010.1
20260509205915 77 315 3.5 8.7 0.00 0.00 0.00 61 1010.2
20260509205823 77 291 3.5 7.8 0.00 0.00 0.00 61 1010.2
20260509205714 77 262 4.3 7.8 0.00 0.00 0.00 61 1010.2
20260509205622 77 283 4.3 8.7 0.00 0.00 0.00 61 1010.2
20260509205548 77 306 4.3 8.7 0.00 0.00 0.00 61 1010.1
20260509205414 77 282 3.5 8.7 0.00 0.00 0.00 61 1010.2
20260509205322 77 313 3.5 8.7 0.00 0.00 0.00 61 1010.2
20260509205229 77 302 3.5 8.7 0.00 0.00 0.00 61 1010.2
20260509205116 77 286 4.3 8.7 0.00 0.00 0.00 61 1010.2
20260509205051 77 280 5.2 8.7 0.00 0.00 0.00 61 1010.2
20260509204824 77 293 4.3 8.7 0.00 0.00 0.00 62 1010.3
20260509204712 77 289 2.6 6.1 0.00 0.00 0.00 62 1010.3
20260509204618 77 240 1.7 6.1 0.00 0.00 0.00 62 1010.3
20260509204530 77 254 2.6 6.1 0.00 0.00 0.00 62 1010.3
20260509204417 77 288 2.6 7.0 0.00 0.00 0.00 62 1010.3
20260509204324 77 319 2.6 7.0 0.00 0.00 0.00 62 1010.3
20260509204213 77 269 2.6 7.0 0.00 0.00 0.00 62 1010.4
20260509204140 77 263 2.6 7.0 0.00 0.00 0.00 62 1010.4
20260509204027 77 290 2.6 7.0 0.00 0.00 0.00 62 1010.4
20260509203920 77 284 1.7 7.0 0.00 0.00 0.00 62 1010.4
20260509203828 77 243 1.7 7.0 0.00 0.00 0.00 62 1010.4
20260509203736 77 321 2.6 7.0 0.00 0.00 0.00 62 1010.4
20260509203623 76 290 3.5 7.0 0.00 0.00 0.00 62 1010.4
20260509203554 76 323 4.3 7.0 0.00 0.00 0.00 63 1010.4
20260509203311 76 264 3.5 7.0 0.00 0.00 0.00 63 1010.4
20260509203219 76 288 1.7 7.0 0.00 0.00 0.00 63 1010.4
20260509203126 76 242 1.7 7.0 0.00 0.00 0.00 62 1010.4
20260509203013 76 360 1.7 7.0 0.00 0.00 0.00 64 1010.4
20260509202922 76 5 2.6 7.0 0.00 0.00 0.00 63 1010.4
20260509202812 76 253 2.6 7.0 0.00 0.00 0.00 63 1010.4
20260509202719 76 263 2.6 7.0 0.00 0.00 0.00 64 1010.4
20260509202625 76 239 2.6 4.3 0.00 0.00 0.00 63 1010.4
20260509202512 76 285 2.6 7.0 0.00 0.00 0.00 63 1010.5
20260509202418 76 277 2.6 7.0 0.00 0.00 0.00 64 1010.5
20260509202327 76 298 2.6 7.0 0.00 0.00 0.00 64 1010.5
20260509202218 76 291 2.6 7.0 0.00 0.00 0.00 65 1010.5
20260509202125 76 306 2.6 7.0 0.00 0.00 0.00 63 1010.5
20260509202056 76 295 2.6 7.0 0.00 0.00 0.00 63 1010.5
20260509201831 76 316 3.5 7.0 0.00 0.00 0.00 63 1010.7
20260509201721 76 305 2.6 7.0 0.00 0.00 0.00 65 1010.5
20260509201629 76 215 1.7 7.0 0.00 0.00 0.00 64 1010.6
20260509201517 76 220 0.9 7.0 0.00 0.00 0.00 65 1010.6
20260509201425 76 238 1.7 7.0 0.00 0.00 0.00 65 1010.6
20260509201333 76 270 1.7 7.0 0.00 0.00 0.00 65 1010.5
20260509201220 76 261 1.7 7.8 0.00 0.00 0.00 65 1010.5
20260509201131 76 310 1.7 9.6 0.00 0.00 0.00 65 1010.5
20260509201018 76 30 3.5 9.6 0.00 0.00 0.00 65 1010.6
20260509200925 76 253 4.3 9.6 0.00 0.00 0.00 64 1010.6
20260509200852 76 268 3.5 9.6 0.00 0.00 0.00 64 1010.5
20260509200719 76 254 4.3 9.6 0.00 0.00 0.00 64 1010.6
20260509200626 76 272 5.2 9.6 0.00 0.00 0.00 64 1010.6
20260509200601 76 303 6.1 9.6 0.00 0.00 0.00 64 1010.5
20260509200314 76 294 5.2 9.6 0.00 0.00 0.00 64 1010.5
20260509200220 76 296 5.2 9.6 0.00 0.00 0.00 63 1010.5
20260509200127 76 301 4.3 8.7 0.00 0.00 0.00 63 1010.5
20260509200020 76 299 5.2 8.7 0.00 0.00 0.00 63 1010.5
20260509195927 76 304 5.2 8.7 0.00 0.00 0.00 64 1010.5
20260509195815 76 265 5.2 8.7 0.00 0.00 0.00 64 1010.5
20260509195742 76 274 4.3 7.8 0.00 0.00 0.00 64 1010.6
20260509195629 76 281 5.2 7.8 0.00 0.00 0.00 64 1010.6
20260509195517 76 291 5.2 7.8 0.00 0.00 0.00 64 1010.5
20260509195430 76 281 4.3 7.8 0.00 0.00 0.00 64 1010.5
20260509195316 76 294 3.5 7.8 0.00 0.00 0.00 64 1010.5
20260509195223 76 311 4.3 7.8 0.00 0.00 0.00 64 1010.5
20260509195131 76 274 4.3 7.8 0.00 0.00 0.00 64 1010.6
20260509195101 76 279 4.3 9.6 0.00 0.00 0.00 64 1010.6
20260509194819 76 288 3.5 9.6 0.00 0.00 0.00 63 1010.6
20260509194726 76 302 3.5 9.6 0.00 0.00 0.00 63 1010.6
20260509194652 76 290 3.5 9.6 0.00 0.00 0.00 63 1010.5
20260509194540 76 267 5.2 9.6 0.00 0.00 0.00 63 1010.5
20260509194426 76 273 6.1 9.6 0.00 0.00 0.00 63 1010.5
20260509194314 76 281 6.1 9.6 0.00 0.00 0.00 63 1010.4
20260509194227 76 273 6.1 9.6 0.00 0.00 0.00 63 1010.4
20260509194115 76 269 5.2 8.7 0.00 0.00 0.00 64 1010.5
20260509194021 76 330 4.3 8.7 0.00 0.00 0.00 64 1010.5
20260509193929 76 287 4.3 7.8 0.00 0.00 0.00 65 1010.5
20260509193817 76 313 3.5 7.8 0.00 0.00 0.00 65 1010.6
20260509193745 76 326 3.5 7.8 0.00 0.00 0.00 64 1010.6
20260509193614 76 290 3.5 6.1 0.00 0.00 0.00 66 1010.7
20260509193546 76 249 3.5 5.2 0.00 0.00 0.00 65 1010.7
20260509193339 76 277 2.6 5.2 0.00 0.00 0.00 65 1010.4
20260509193225 76 296 1.7 7.0 0.00 0.00 0.00 65 1010.4
20260509193114 76 275 2.6 7.0 0.00 0.00 0.00 65 1010.4
20260509193041 76 283 2.6 7.8 0.00 0.00 0.00 65 1010.4
20260509192948 76 273 2.6 7.8 0.00 0.00 0.00 64 1010.4
20260509192814 76 5 3.5 7.8 0.00 0.00 0.00 64 1010.4
20260509192722 76 319 3.5 7.8 0.00 0.00 0.00 64 1010.4
20260509192629 76 277 2.6 7.8 0.00 0.00 0.00 65 1010.6
20260509192516 76 317 3.5 7.8 0.00 0.00 0.00 64 1010.6
20260509192427 76 348 4.3 7.8 0.00 0.00 0.00 64 1010.6
20260509192314 76 297 4.3 7.8 0.00 0.00 0.00 65 1010.5
20260509192223 76 237 3.5 7.8 0.00 0.00 0.00 65 1010.5
20260509192131 76 224 2.6 7.8 0.00 0.00 0.00 67 1010.6
20260509192105 76 194 1.7 7.8 0.00 0.00 0.00 64 1010.6
20260509191819 76 360 1.7 9.6 0.00 0.00 0.00 63 1010.8
20260509191727 76 34 2.6 9.6 0.00 0.00 0.00 63 1010.8
20260509191614 76 181 4.3 9.6 0.00 0.00 0.00 64 1010.9
20260509191523 76 219 4.3 9.6 0.00 0.00 0.00 64 1010.9
20260509191450 76 215 2.6 9.6 0.00 0.00 0.00 64 1010.8
20260509191322 76 313 3.5 9.6 0.00 0.00 0.00 65 1010.8
20260509191229 76 292 3.5 9.6 0.00 0.00 0.00 64 1010.9
20260509191117 76 244 4.3 9.6 0.00 0.00 0.00 65 1010.9
20260509191046 76 258 3.5 9.6 0.00 0.00 0.00 65 1010.9
20260509190952 76 262 4.3 9.6 0.00 0.00 0.00 65 1010.9
20260509190819 76 248 4.3 8.7 0.00 0.00 0.00 65 1010.8
20260509190730 76 239 5.2 8.7 0.00 0.00 0.00 66 1010.8
20260509190617 76 241 6.1 8.7 0.00 0.00 0.00 66 1010.9
20260509190547 76 302 6.1 8.7 0.00 0.00 0.00 66 1010.9
20260509190340 76 329 5.2 8.7 0.00 0.00 0.00 66 1010.7
20260509190246 75 329 4.3 7.8 0.00 0.00 0.00 66 1010.7
20260509190117 75 264 4.3 7.8 0.00 0.00 0.00 66 1010.8
20260509190024 75 343 4.3 7.8 0.00 0.00 0.00 66 1010.8
20260509185932 75 309 3.5 7.0 0.00 0.00 0.00 67 1010.8
20260509185819 75 277 1.7 7.8 0.00 0.00 0.00 67 1010.9
20260509185727 75 167 0.9 7.8 0.00 0.00 0.00 67 1010.9
20260509185634 75 49 1.7 7.8 0.00 0.00 0.00 67 1010.8
20260509185525 75 286 1.7 7.8 0.00 0.00 0.00 67 1010.8
20260509185452 75 270 1.7 7.8 0.00 0.00 0.00 67 1010.8
20260509185320 75 336 2.6 7.8 0.00 0.00 0.00 67 1010.9
20260509185227 75 287 3.5 7.8 0.00 0.00 0.00 66 1010.9
20260509185136 75 252 3.5 7.8 0.00 0.00 0.00 67 1010.9
20260509185049 75 260 3.5 9.6 0.00 0.00 0.00 67 1010.9
20260509184821 75 306 1.7 9.6 0.00 0.00 0.00 67 1011.0
20260509184728 75 218 1.7 9.6 0.00 0.00 0.00 67 1010.9
20260509184615 75 220 1.7 9.6 0.00 0.00 0.00 68 1011.0
20260509184523 75 243 3.5 9.6 0.00 0.00 0.00 67 1011.0
20260509184431 75 291 4.3 9.6 0.00 0.00 0.00 66 1011.0
20260509184342 75 293 4.3 9.6 0.00 0.00 0.00 67 1011.1
20260509184249 75 293 4.3 9.6 0.00 0.00 0.00 68 1011.1
20260509184115 75 259 3.5 7.8 0.00 0.00 0.00 68 1011.1
20260509184022 75 248 3.5 7.8 0.00 0.00 0.00 67 1011.1
20260509183929 74 253 3.5 7.8 0.00 0.00 0.00 67 1011.1
20260509183816 74 248 3.5 7.8 0.00 0.00 0.00 67 1011.1
20260509183728 74 281 3.5 7.8 0.00 0.00 0.00 68 1011.1
20260509183654 74 330 3.5 7.8 0.00 0.00 0.00 69 1011.1
20260509183604 74 284 4.3 7.8 0.00 0.00 0.00 69 1011.2
20260509183317 74 288 5.2 7.8 0.00 0.00 0.00 68 1011.2
20260509183224 74 345 4.3 7.8 0.00 0.00 0.00 69 1011.2
20260509183115 74 246 3.5 7.8 0.00 0.00 0.00 70 1011.1
20260509183022 74 206 2.6 7.0 0.00 0.00 0.00 68 1011.1
20260509182930 74 228 2.6 7.0 0.00 0.00 0.00 67 1011.2
20260509182818 74 202 2.6 7.0 0.00 0.00 0.00 67 1011.3
20260509182747 74 197 3.5 7.8 0.00 0.00 0.00 67 1011.3
20260509182633 74 238 2.6 7.8 0.00 0.00 0.00 67 1011.3
20260509182539 74 275 1.7 7.8 0.00 0.00 0.00 67 1011.3
20260509182430 74 276 2.6 7.8 0.00 0.00 0.00 67 1011.3
20260509182318 74 347 2.6 7.8 0.00 0.00 0.00 67 1011.4
20260509182226 74 215 3.5 7.8 0.00 0.00 0.00 67 1011.4
20260509182113 74 246 4.3 7.8 0.00 0.00 0.00 67 1011.3
20260509182047 74 288 4.3 7.8 0.00 0.00 0.00 67 1011.3
20260509181822 74 339 3.5 7.8 0.00 0.00 0.00 68 1011.3
20260509181728 74 279 3.5 9.6 0.00 0.00 0.00 68 1011.4
20260509181617 74 318 2.6 9.6 0.00 0.00 0.00 68 1011.3
20260509181525 74 242 2.6 9.6 0.00 0.00 0.00 68 1011.3
20260509181417 74 319 1.7 9.6 0.00 0.00 0.00 69 1011.3
20260509181325 74 302 1.7 9.6 0.00 0.00 0.00 69 1011.3
20260509181213 74 319 1.7 9.6 0.00 0.00 0.00 69 1011.2
20260509181120 73 319 2.6 9.6 0.00 0.00 0.00 70 1011.3
20260509181027 73 329 3.5 9.6 0.00 0.00 0.00 69 1011.3
20260509180913 73 342 5.2 9.6 0.00 0.00 0.00 68 1011.2
20260509180845 73 287 6.1 9.6 0.00 0.00 0.00 68 1011.2
20260509180752 73 282 4.3 9.6 0.00 0.00 0.00 68 1011.3
20260509180618 73 330 2.6 8.7 0.00 0.00 0.00 68 1011.3
20260509180548 73 277 1.7 8.7 0.00 0.00 0.00 69 1011.3
20260509180322 73 213 2.6 8.7 0.00 0.00 0.00 68 1011.2
20260509180234 73 200 3.5 8.7 0.00 0.00 0.00 69 1011.1
20260509180120 73 260 4.3 8.7 0.00 0.00 0.00 69 1011.1
20260509180027 73 276 4.3 8.7 0.00 0.00 0.00 70 1011.1
20260509175934 73 245 2.6 8.7 0.00 0.00 0.00 69 1011.1
20260509175821 73 267 1.7 7.8 0.00 0.00 0.00 69 1011.1
20260509175727 73 287 2.6 7.8 0.00 0.00 0.00 69 1011.1
20260509175634 73 308 3.5 7.8 0.00 0.00 0.00 69 1011.2
20260509175524 73 331 4.3 7.8 0.00 0.00 0.00 68 1011.2
20260509175452 73 306 4.3 7.8 0.00 0.00 0.00 69 1011.1
20260509175338 72 290 4.3 7.8 0.00 0.00 0.00 69 1011.1
20260509175226 72 307 3.5 7.0 0.00 0.00 0.00 70 1011.1
20260509175132 72 262 1.7 7.0 0.00 0.00 0.00 70 1011.1
20260509175105 72 277 1.7 7.8 0.00 0.00 0.00 70 1011.1
20260509174818 72 275 2.6 7.8 0.00 0.00 0.00 70 1011.1
20260509174726 72 205 2.6 7.8 0.00 0.00 0.00 69 1011.1
20260509174634 72 192 2.6 7.8 0.00 0.00 0.00 70 1011.2
20260509174520 72 252 2.6 7.8 0.00 0.00 0.00 68 1011.2
20260509174428 72 192 3.5 8.7 0.00 0.00 0.00 68 1011.2
20260509174319 72 227 4.3 8.7 0.00 0.00 0.00 68 1011.2
20260509174226 72 251 4.3 8.7 0.00 0.00 0.00 69 1011.2
20260509174113 72 253 3.5 8.7 0.00 0.00 0.00 69 1011.1
20260509174021 72 272 3.5 8.7 0.00 0.00 0.00 70 1011.1
20260509173928 72 232 3.5 8.7 0.00 0.00 0.00 69 1011.1
20260509173819 72 334 4.3 8.7 0.00 0.00 0.00 69 1011.1
20260509173728 72 323 5.2 8.7 0.00 0.00 0.00 69 1011.1
20260509173635 72 298 4.3 8.7 0.00 0.00 0.00 69 1010.9
20260509173546 72 308 3.5 7.8 0.00 0.00 0.00 70 1010.9
20260509173320 72 275 2.6 6.1 0.00 0.00 0.00 71 1010.9
20260509173212 72 292 1.7 5.2 0.00 0.00 0.00 71 1010.9
20260509173118 72 273 1.7 7.0 0.00 0.00 0.00 71 1010.9
20260509173026 72 202 1.7 7.0 0.00 0.00 0.00 70 1010.9
20260509172934 72 259 0.9 7.8 0.00 0.00 0.00 71 1011.0
20260509172821 72 296 0.9 7.8 0.00 0.00 0.00 71 1010.9
20260509172748 72 163 1.7 7.8 0.00 0.00 0.00 70 1010.9
20260509172618 72 263 1.7 7.8 0.00 0.00 0.00 71 1011.0
20260509172525 71 302 2.6 7.8 0.00 0.00 0.00 71 1011.0
20260509172414 71 161 4.3 7.8 0.00 0.00 0.00 71 1011.1
20260509172320 71 173 4.3 7.8 0.00 0.00 0.00 70 1011.1
20260509172247 71 187 4.3 7.8 0.00 0.00 0.00 70 1011.1
20260509172113 71 196 2.6 7.0 0.00 0.00 0.00 71 1011.2
20260509172048 71 173 3.5 7.0 0.00 0.00 0.00 72 1011.2
20260509171822 71 186 3.5 7.0 0.00 0.00 0.00 72 1011.3
20260509171748 71 274 3.5 7.0 0.00 0.00 0.00 71 1011.3
20260509171614 71 248 3.5 8.7 0.00 0.00 0.00 72 1011.3
20260509171521 71 217 2.6 8.7 0.00 0.00 0.00 72 1011.3
20260509171432 71 169 3.5 8.7 0.00 0.00 0.00 72 1011.3
20260509171316 71 192 4.3 8.7 0.00 0.00 0.00 73 1011.3
20260509171223 71 304 4.3 8.7 0.00 0.00 0.00 73 1011.3
20260509171131 70 260 4.3 10.4 0.00 0.00 0.00 73 1011.4
20260509171019 70 240 5.2 10.4 0.00 0.00 0.00 74 1011.3
20260509170926 70 275 5.2 10.4 0.00 0.00 0.00 74 1011.3
20260509170818 70 241 4.3 10.4 0.00 0.00 0.00 74 1011.4
20260509170726 70 217 3.5 10.4 0.00 0.00 0.00 75 1011.4
20260509170633 70 301 4.3 10.4 0.00 0.00 0.00 76 1011.3
20260509170604 70 242 5.2 10.4 0.00 0.00 0.00 75 1011.3
20260509170341 70 228 5.2 10.4 0.00 0.00 0.00 74 1011.5
20260509170246 70 204 4.3 9.6 0.00 0.00 0.00 74 1011.5
20260509170112 70 170 4.3 9.6 0.00 0.00 0.00 74 1011.5
20260509170020 70 180 4.3 9.6 0.00 0.00 0.00 74 1011.6
20260509165928 70 187 5.2 9.6 0.00 0.00 0.00 74 1011.6
20260509165816 70 242 6.1 9.6 0.00 0.00 0.00 74 1011.6
20260509165729 70 202 5.2 9.6 0.00 0.00 0.00 74 1011.6
20260509165615 70 228 3.5 10.4 0.00 0.00 0.00 74 1011.6
20260509165524 70 199 2.6 10.4 0.00 0.00 0.00 74 1011.6
20260509165451 70 224 2.6 10.4 0.00 0.00 0.00 76 1011.6
20260509165318 69 178 4.3 10.4 0.00 0.00 0.00 76 1011.7
20260509165246 69 183 4.3 10.4 0.00 0.00 0.00 75 1011.7
20260509165132 69 183 5.2 10.4 0.00 0.00 0.00 74 1011.7
20260509165046 69 160 5.2 10.4 0.00 0.00 0.00 74 1011.7
20260509164840 69 164 6.1 10.4 0.00 0.00 0.00 75 1011.8
20260509164727 69 180 6.1 10.4 0.00 0.00 0.00 75 1011.8
20260509164615 69 175 5.2 10.4 0.00 0.00 0.00 76 1011.7
20260509164522 69 205 3.5 10.4 0.00 0.00 0.00 76 1011.7
20260509164412 69 180 4.3 10.4 0.00 0.00 0.00 75 1011.7
20260509164320 69 169 4.3 10.4 0.00 0.00 0.00 75 1011.7
20260509164227 69 142 6.1 10.4 0.00 0.00 0.00 75 1011.7
20260509164116 69 212 5.2 10.4 0.00 0.00 0.00 75 1011.8
20260509164023 69 184 5.2 9.6 0.00 0.00 0.00 75 1011.8
20260509163915 69 183 5.2 9.6 0.00 0.00 0.00 75 1011.8
20260509163823 69 189 4.3 7.8 0.00 0.00 0.00 76 1011.8
20260509163730 69 217 3.5 7.8 0.00 0.00 0.00 75 1011.8
20260509163617 69 205 3.5 7.0 0.00 0.00 0.00 77 1011.8
20260509163552 69 148 3.5 7.0 0.00 0.00 0.00 77 1011.8
20260509163346 69 176 3.5 8.7 0.00 0.00 0.00 77 1011.8
20260509163211 68 240 2.6 9.6 0.00 0.00 0.00 77 1011.8
20260509163119 68 288 2.6 9.6 0.00 0.00 0.00 77 1011.8
20260509163048 68 283 2.6 9.6 0.00 0.00 0.00 77 1011.8
20260509162915 68 186 1.7 9.6 0.00 0.00 0.00 77 1011.8
20260509162843 68 304 1.7 9.6 0.00 0.00 0.00 76 1011.8
20260509162712 68 232 2.6 9.6 0.00 0.00 0.00 77 1011.9
20260509162641 68 192 4.3 9.6 0.00 0.00 0.00 77 1011.7
20260509162548 68 200 4.3 9.6 0.00 0.00 0.00 78 1011.7
20260509162415 68 167 5.2 9.6 0.00 0.00 0.00 78 1011.7
20260509162343 68 232 5.2 10.4 0.00 0.00 0.00 78 1011.7
20260509162230 68 165 4.3 7.8 0.00 0.00 0.00 78 1011.8
20260509162117 68 180 4.3 7.8 0.00 0.00 0.00 78 1011.8
20260509162050 68 192 4.3 7.8 0.00 0.00 0.00 78 1011.8